EA1FJG Weather Reports


Display with metric or nautical units.
time (UTC)temp
F
wind
direction
speed
MPH
gust
MPH
rain 1hr
in
rain 24hr
in
rain mn
in
humidity
%
barometer
mb
20260901193003 66 6 0.0 1.0 0.00 0.00 0.00 89 1022.0
20260901192903 66 340 0.0 2.0 0.00 0.00 0.00 89 1021.9
20260901192802 66 342 0.0 2.0 0.00 0.00 0.00 89 1021.6
20260901192702 67 345 0.0 2.0 0.00 0.00 0.00 88 1021.8
20260901192602 67 345 1.0 2.0 0.00 0.00 0.00 88 1021.9
20260901192502 67 328 1.0 4.0 0.00 0.00 0.00 88 1021.8
20260901192403 67 332 1.0 4.0 0.00 0.00 0.00 88 1021.9
20260901192306 67 332 1.0 4.0 0.00 0.00 0.00 88 1021.9
20260901192203 67 332 1.0 4.0 0.00 0.00 0.00 88 1021.8
20260901192123 67 332 1.0 4.0 0.00 0.00 0.00 88 1021.8
20260901192003 67 334 1.0 4.0 0.00 0.00 0.00 88 1021.8
20260901191902 67 338 1.0 4.0 0.00 0.00 0.00 88 1021.8
20260901191803 67 337 1.0 4.0 0.00 0.00 0.00 87 1021.9
20260901191702 67 336 1.0 4.0 0.00 0.00 0.00 87 1022.1
20260901191603 67 337 1.0 4.0 0.00 0.00 0.00 87 1021.9
20260901191503 67 355 1.0 2.0 0.00 0.00 0.00 87 1021.8
20260901191424 67 354 1.0 2.0 0.00 0.00 0.00 87 1021.9
20260901191302 67 350 1.0 2.0 0.00 0.00 0.00 87 1021.8
20260901191203 67 349 1.0 2.0 0.00 0.00 0.00 86 1021.8
20260901191102 67 350 1.0 2.0 0.00 0.00 0.00 86 1021.8
20260901191024 67 348 1.0 2.0 0.00 0.00 0.00 86 1021.8
20260901190902 68 345 1.0 2.0 0.00 0.00 0.00 86 1021.8
20260901190824 68 341 1.0 2.0 0.00 0.00 0.00 86 1021.8
20260901190702 68 332 1.0 3.0 0.00 0.00 0.00 86 1021.8
20260901190624 68 332 1.0 3.0 0.00 0.00 0.00 86 1021.8
20260901190503 68 327 1.0 3.0 0.00 0.00 0.00 86 1021.8
20260901190402 68 328 1.0 3.0 0.00 0.00 0.00 86 1021.8
20260901190324 68 328 1.0 3.0 0.00 0.00 0.00 86 1021.8
20260901190203 68 330 1.0 3.0 0.00 0.00 0.00 86 1021.8
20260901190002 68 335 1.0 3.0 0.00 0.00 0.00 85 1021.7
20260901185924 68 334 1.0 3.0 0.00 0.00 0.00 85 1021.7
20260901185803 68 336 1.0 3.0 0.00 0.00 0.00 85 1021.7
20260901185702 68 341 1.0 3.0 0.00 0.00 0.00 85 1021.8
20260901185603 68 351 1.0 3.0 0.00 0.00 0.00 85 1021.6
20260901185503 68 357 1.0 3.0 0.00 0.00 0.00 85 1021.7
20260901185403 68 357 1.0 3.0 0.00 0.00 0.00 85 1021.7
20260901185305 68 356 1.0 3.0 0.00 0.00 0.00 85 1021.6
20260901185202 68 357 1.0 3.0 0.00 0.00 0.00 85 1021.7
20260901185103 68 357 1.0 3.0 0.00 0.00 0.00 85 1021.7
20260901185024 69 351 1.0 3.0 0.00 0.00 0.00 84 1021.6
20260901184902 69 350 1.0 3.0 0.00 0.00 0.00 84 1021.5
20260901184803 69 349 1.0 3.0 0.00 0.00 0.00 83 1021.7
20260901184703 69 348 1.0 3.0 0.00 0.00 0.00 83 1021.6
20260901184624 69 341 1.0 3.0 0.00 0.00 0.00 83 1021.7
20260901184524 70 341 1.0 3.0 0.00 0.00 0.00 82 1021.6
20260901184403 70 342 1.0 3.0 0.00 0.00 0.00 82 1021.7
20260901184302 70 341 1.0 3.0 0.00 0.00 0.00 82 1021.5
20260901184224 70 340 2.0 3.0 0.00 0.00 0.00 82 1021.6
20260901184102 70 340 2.0 3.0 0.00 0.00 0.00 81 1021.6
20260901184002 70 334 2.0 3.0 0.00 0.00 0.00 81 1021.6
20260901183902 70 333 2.0 3.0 0.00 0.00 0.00 81 1021.6
20260901183803 70 329 2.0 3.0 0.00 0.00 0.00 81 1021.5
20260901183703 70 329 2.0 3.0 0.00 0.00 0.00 81 1021.5
20260901183603 70 329 2.0 3.0 0.00 0.00 0.00 81 1021.5
20260901183502 70 327 2.0 3.0 0.00 0.00 0.00 81 1021.5
20260901183403 71 328 2.0 3.0 0.00 0.00 0.00 80 1021.6
20260901183302 71 328 2.0 3.0 0.00 0.00 0.00 80 1021.6
20260901183202 71 326 2.0 3.0 0.00 0.00 0.00 80 1021.6
20260901183103 71 323 2.0 4.0 0.00 0.00 0.00 80 1021.6
20260901183024 71 320 2.0 4.0 0.00 0.00 0.00 79 1021.6
20260901182903 71 325 2.0 4.0 0.00 0.00 0.00 79 1021.5
20260901182802 71 327 2.0 4.0 0.00 0.00 0.00 79 1021.6
20260901182724 71 327 2.0 4.0 0.00 0.00 0.00 79 1021.6
20260901182602 71 328 2.0 4.0 0.00 0.00 0.00 79 1021.6
20260901182503 71 328 2.0 4.0 0.00 0.00 0.00 79 1021.7
20260901182402 71 327 2.0 4.0 0.00 0.00 0.00 78 1021.7
20260901182305 71 326 2.0 4.0 0.00 0.00 0.00 78 1021.6
20260901182203 71 322 2.0 4.0 0.00 0.00 0.00 78 1021.4
20260901182103 71 318 2.0 4.0 0.00 0.00 0.00 78 1021.5
20260901182003 71 318 2.0 3.0 0.00 0.00 0.00 79 1021.6
20260901181902 71 318 2.0 3.0 0.00 0.00 0.00 79 1021.4
20260901181823 71 315 2.0 3.0 0.00 0.00 0.00 79 1021.6
20260901181702 71 316 2.0 4.0 0.00 0.00 0.00 79 1021.7
20260901181603 71 311 2.0 4.0 0.00 0.00 0.00 79 1021.6
20260901181502 71 310 2.0 4.0 0.00 0.00 0.00 79 1021.7
20260901181403 71 309 2.0 4.0 0.00 0.00 0.00 80 1021.5
20260901181302 71 305 2.0 4.0 0.00 0.00 0.00 80 1021.7
20260901181202 71 298 3.0 6.0 0.00 0.00 0.00 80 1021.7
20260901181124 71 299 3.0 6.0 0.00 0.00 0.00 80 1021.8
20260901181003 71 303 3.0 6.0 0.00 0.00 0.00 80 1022.0
20260901180903 71 298 3.0 6.0 0.00 0.00 0.00 80 1021.6
20260901180802 71 299 3.0 6.0 0.00 0.00 0.00 80 1021.6
20260901180703 71 295 3.0 6.0 0.00 0.00 0.00 79 1021.8
20260901180603 71 299 3.0 6.0 0.00 0.00 0.00 79 1021.7
20260901180503 71 297 2.0 6.0 0.00 0.00 0.00 79 1021.8
20260901180423 71 305 3.0 7.0 0.00 0.00 0.00 78 1021.8
20260901180302 72 306 3.0 7.0 0.00 0.00 0.00 78 1021.7
20260901180202 72 308 3.0 7.0 0.00 0.00 0.00 78 1021.6
20260901180123 72 307 3.0 7.0 0.00 0.00 0.00 78 1021.7
20260901180024 72 309 3.0 7.0 0.00 0.00 0.00 78 1021.5
20260901175924 72 312 3.0 7.0 0.00 0.00 0.00 78 1021.6
20260901175803 72 306 3.0 7.0 0.00 0.00 0.00 78 1021.7
20260901175703 72 308 3.0 7.0 0.00 0.00 0.00 78 1021.6
20260901175603 72 306 3.0 7.0 0.00 0.00 0.00 78 1021.7
20260901175502 72 306 3.0 7.0 0.00 0.00 0.00 78 1021.7
20260901175403 72 299 3.0 7.0 0.00 0.00 0.00 77 1021.6
20260901175324 72 291 3.0 6.0 0.00 0.00 0.00 77 1021.9
20260901175203 72 292 3.0 6.0 0.00 0.00 0.00 77 1021.6
20260901175123 72 299 3.0 6.0 0.00 0.00 0.00 77 1021.8
20260901175003 72 297 3.0 6.0 0.00 0.00 0.00 77 1021.9
20260901174903 72 297 3.0 6.0 0.00 0.00 0.00 77 1021.9
20260901174803 72 299 3.0 6.0 0.00 0.00 0.00 77 1021.9
20260901174724 72 300 3.0 6.0 0.00 0.00 0.00 77 1021.8
20260901174603 72 300 2.0 4.0 0.00 0.00 0.00 77 1021.6
20260901174524 72 300 2.0 4.0 0.00 0.00 0.00 77 1021.6
20260901174403 72 304 2.0 4.0 0.00 0.00 0.00 77 1021.6
20260901174302 72 305 2.0 6.0 0.00 0.00 0.00 77 1021.5
20260901174223 72 301 3.0 7.0 0.00 0.00 0.00 77 1021.6
20260901174102 72 302 3.0 7.0 0.00 0.00 0.00 77 1021.7
20260901174002 72 305 3.0 7.0 0.00 0.00 0.00 77 1021.7
20260901173903 72 304 3.0 7.0 0.00 0.00 0.00 77 1021.7
20260901173803 72 302 3.0 7.0 0.00 0.00 0.00 77 1021.6
20260901173703 72 301 3.0 7.0 0.00 0.00 0.00 77 1021.6
20260901173603 73 297 3.0 7.0 0.00 0.00 0.00 76 1021.5
20260901173503 73 295 3.0 7.0 0.00 0.00 0.00 76 1021.6
20260901173403 73 294 3.0 7.0 0.00 0.00 0.00 76 1021.5
20260901173303 73 301 3.0 7.0 0.00 0.00 0.00 75 1021.5
20260901173203 73 303 3.0 6.0 0.00 0.00 0.00 76 1021.5
20260901173103 73 306 3.0 6.0 0.00 0.00 0.00 76 1021.6
20260901173003 73 306 3.0 6.0 0.00 0.00 0.00 76 1021.6
20260901172924 73 305 3.0 6.0 0.00 0.00 0.00 76 1021.6
20260901172802 73 303 3.0 6.0 0.00 0.00 0.00 76 1021.3
20260901172703 73 307 3.0 6.0 0.00 0.00 0.00 76 1021.7
20260901172603 73 303 3.0 6.0 0.00 0.00 0.00 75 1021.5
20260901172503 73 304 3.0 6.0 0.00 0.00 0.00 75 1021.5
20260901172403 73 307 3.0 6.0 0.00 0.00 0.00 75 1021.6
20260901172305 73 309 3.0 6.0 0.00 0.00 0.00 76 1021.5
20260901172202 74 307 3.0 6.0 0.00 0.00 0.00 75 1021.4
20260901172102 74 307 2.0 6.0 0.00 0.00 0.00 75 1021.6
20260901172003 74 305 2.0 4.0 0.00 0.00 0.00 75 1021.6
20260901171924 74 305 2.0 4.0 0.00 0.00 0.00 75 1021.6
20260901171803 74 298 2.0 6.0 0.00 0.00 0.00 75 1021.5
20260901171703 74 302 3.0 6.0 0.00 0.00 0.00 74 1021.6
20260901171603 74 303 2.0 6.0 0.00 0.00 0.00 74 1021.5
20260901171503 74 309 2.0 6.0 0.00 0.00 0.00 76 1021.5
20260901171402 74 309 2.0 6.0 0.00 0.00 0.00 76 1021.5
20260901171302 74 301 3.0 6.0 0.00 0.00 0.00 75 1021.4
20260901171203 74 301 3.0 6.0 0.00 0.00 0.00 75 1021.4
20260901171102 74 300 3.0 6.0 0.00 0.00 0.00 75 1021.5
20260901171003 74 300 3.0 6.0 0.00 0.00 0.00 75 1021.4
20260901170903 74 298 3.0 6.0 0.00 0.00 0.00 74 1021.3
20260901170803 74 298 3.0 6.0 0.00 0.00 0.00 74 1021.3
20260901170703 74 304 3.0 6.0 0.00 0.00 0.00 74 1021.5
20260901170603 75 301 3.0 6.0 0.00 0.00 0.00 73 1021.5
20260901170503 75 308 3.0 6.0 0.00 0.00 0.00 73 1021.4
20260901170403 75 307 2.0 4.0 0.00 0.00 0.00 73 1021.4
20260901170303 75 309 2.0 4.0 0.00 0.00 0.00 73 1021.4
20260901170224 75 310 3.0 6.0 0.00 0.00 0.00 73 1021.3
20260901170024 75 315 3.0 6.0 0.00 0.00 0.00 73 1021.2
20260901165903 75 306 3.0 6.0 0.00 0.00 0.00 73 1021.2
20260901165803 74 301 3.0 6.0 0.00 0.00 0.00 72 1021.3
20260901165703 74 301 3.0 6.0 0.00 0.00 0.00 72 1021.5
20260901165603 74 295 4.0 8.0 0.00 0.00 0.00 73 1021.5
20260901165524 74 295 4.0 8.0 0.00 0.00 0.00 73 1021.3
20260901165402 74 290 4.0 8.0 0.00 0.00 0.00 72 1021.4
20260901165306 74 290 4.0 8.0 0.00 0.00 0.00 72 1021.3
20260901165202 74 292 4.0 8.0 0.00 0.00 0.00 72 1021.5
20260901165124 74 292 4.0 8.0 0.00 0.00 0.00 72 1021.5
20260901165003 75 282 4.0 8.0 0.00 0.00 0.00 72 1021.3
20260901164903 75 289 4.0 8.0 0.00 0.00 0.00 73 1021.5
20260901164803 75 290 4.0 8.0 0.00 0.00 0.00 72 1021.3
20260901164703 75 290 4.0 8.0 0.00 0.00 0.00 71 1021.3
20260901164603 75 298 3.0 8.0 0.00 0.00 0.00 72 1021.2
20260901164503 75 298 3.0 8.0 0.00 0.00 0.00 72 1021.2
20260901164403 75 300 3.0 8.0 0.00 0.00 0.00 72 1021.3
20260901164303 76 305 3.0 8.0 0.00 0.00 0.00 71 1021.3
20260901164203 76 299 3.0 8.0 0.00 0.00 0.00 70 1021.3
20260901164103 76 299 2.0 7.0 0.00 0.00 0.00 70 1021.3
20260901164003 77 310 2.0 7.0 0.00 0.00 0.00 69 1021.2
20260901163903 77 320 2.0 6.0 0.00 0.00 0.00 70 1021.1
20260901163824 77 313 2.0 6.0 0.00 0.00 0.00 69 1021.2
20260901163703 77 316 2.0 6.0 0.00 0.00 0.00 68 1021.1
20260901163603 77 325 2.0 6.0 0.00 0.00 0.00 70 1021.1
20260901163503 78 320 2.0 6.0 0.00 0.00 0.00 70 1021.1
20260901163403 78 317 2.0 6.0 0.00 0.00 0.00 69 1021.1
20260901163302 78 328 2.0 6.0 0.00 0.00 0.00 67 1021.1
20260901163202 78 345 2.0 4.0 0.00 0.00 0.00 68 1021.2
20260901163103 77 345 2.0 4.0 0.00 0.00 0.00 68 1021.1
20260901163024 77 345 2.0 4.0 0.00 0.00 0.00 68 1021.2
20260901162903 77 343 2.0 4.0 0.00 0.00 0.00 68 1021.3
20260901162803 77 349 2.0 4.0 0.00 0.00 0.00 67 1021.2
20260901162703 76 350 2.0 4.0 0.00 0.00 0.00 67 1021.1
20260901162603 76 342 2.0 4.0 0.00 0.00 0.00 68 1021.3
20260901162503 77 330 2.0 4.0 0.00 0.00 0.00 67 1021.2
20260901162424 77 332 2.0 4.0 0.00 0.00 0.00 66 1021.2
20260901162306 77 326 2.0 4.0 0.00 0.00 0.00 68 1021.2
20260901162203 77 319 2.0 4.0 0.00 0.00 0.00 67 1021.2
20260901162103 77 313 3.0 4.0 0.00 0.00 0.00 66 1021.3
20260901162003 77 305 2.0 4.0 0.00 0.00 0.00 67 1021.2
20260901161903 77 303 3.0 4.0 0.00 0.00 0.00 67 1021.1
20260901161803 77 297 3.0 4.0 0.00 0.00 0.00 67 1021.1
20260901161703 77 292 3.0 4.0 0.00 0.00 0.00 66 1021.2
20260901161603 77 293 3.0 4.0 0.00 0.00 0.00 66 1021.1
20260901161503 77 289 3.0 4.0 0.00 0.00 0.00 66 1021.0
20260901161403 77 299 2.0 4.0 0.00 0.00 0.00 66 1021.3
20260901161303 77 299 2.0 4.0 0.00 0.00 0.00 66 1021.3
20260901161203 77 309 2.0 4.0 0.00 0.00 0.00 66 1021.2
20260901161103 77 310 2.0 4.0 0.00 0.00 0.00 66 1021.2
20260901161003 76 300 2.0 6.0 0.00 0.00 0.00 67 1021.2
20260901160924 76 300 2.0 6.0 0.00 0.00 0.00 67 1021.2
20260901160803 76 318 2.0 6.0 0.00 0.00 0.00 67 1021.1
20260901160703 76 325 3.0 6.0 0.00 0.00 0.00 69 1021.2
20260901160603 76 340 3.0 6.0 0.00 0.00 0.00 68 1021.1
20260901160524 76 340 3.0 6.0 0.00 0.00 0.00 68 1021.1
20260901160424 76 338 3.0 6.0 0.00 0.00 0.00 68 1021.2
20260901160303 76 336 3.0 6.0 0.00 0.00 0.00 68 1021.2
20260901160203 76 336 3.0 6.0 0.00 0.00 0.00 68 1021.3
20260901160003 75 340 3.0 8.0 0.00 0.00 0.00 70 1021.1
20260901155903 75 348 3.0 8.0 0.00 0.00 0.00 70 1021.2
20260901155803 75 348 3.0 8.0 0.00 0.00 0.00 70 1021.2
20260901155703 75 349 3.0 8.0 0.00 0.00 0.00 69 1021.1
20260901155603 76 352 3.0 8.0 0.00 0.00 0.00 69 1021.3
20260901155503 75 350 3.0 8.0 0.00 0.00 0.00 69 1021.2
20260901155403 75 355 3.0 8.0 0.00 0.00 0.00 70 1021.1
20260901155306 76 355 3.0 8.0 0.00 0.00 0.00 70 1021.2
20260901155203 76 356 3.0 8.0 0.00 0.00 0.00 69 1021.2
20260901155103 76 353 3.0 6.0 0.00 0.00 0.00 68 1021.3
20260901155003 76 350 3.0 6.0 0.00 0.00 0.00 69 1021.4
20260901154903 76 350 3.0 6.0 0.00 0.00 0.00 69 1021.4
20260901154803 76 349 3.0 6.0 0.00 0.00 0.00 70 1021.2
20260901154703 76 345 3.0 6.0 0.00 0.00 0.00 69 1021.4
20260901154603 76 343 3.0 8.0 0.00 0.00 0.00 69 1021.3
20260901154503 76 343 3.0 8.0 0.00 0.00 0.00 69 1021.3
20260901154403 76 340 3.0 8.0 0.00 0.00 0.00 70 1021.4
20260901154303 76 339 4.0 8.0 0.00 0.00 0.00 70 1021.2
20260901154203 76 337 4.0 8.0 0.00 0.00 0.00 69 1021.4
20260901154124 75 336 4.0 8.0 0.00 0.00 0.00 69 1021.2
20260901154003 75 341 3.0 8.0 0.00 0.00 0.00 70 1021.2
20260901153903 75 342 3.0 8.0 0.00 0.00 0.00 71 1021.3
20260901153803 75 347 3.0 8.0 0.00 0.00 0.00 71 1021.3
20260901153703 76 343 3.0 8.0 0.00 0.00 0.00 70 1021.2
20260901153603 76 345 3.0 8.0 0.00 0.00 0.00 72 1021.5
20260901153524 76 343 3.0 8.0 0.00 0.00 0.00 70 1021.4
20260901153403 76 346 3.0 6.0 0.00 0.00 0.00 70 1021.4
20260901153324 76 346 3.0 6.0 0.00 0.00 0.00 70 1021.3
20260901153203 76 344 3.0 7.0 0.00 0.00 0.00 72 1021.4
20260901153103 75 344 3.0 7.0 0.00 0.00 0.00 70 1021.5
20260901153003 75 344 3.0 7.0 0.00 0.00 0.00 70 1021.3
20260901152924 75 347 3.0 7.0 0.00 0.00 0.00 70 1021.5
20260901152803 75 343 3.0 9.0 0.00 0.00 0.00 71 1021.4
20260901152724 75 343 4.0 9.0 0.00 0.00 0.00 72 1021.5
20260901152624 76 340 4.0 9.0 0.00 0.00 0.00 70 1021.5
20260901152503 76 339 4.0 9.0 0.00 0.00 0.00 70 1021.4
20260901152403 76 340 4.0 9.0 0.00 0.00 0.00 70 1021.4
20260901152305 76 340 4.0 9.0 0.00 0.00 0.00 71 1021.6
20260901152203 76 341 4.0 9.0 0.00 0.00 0.00 70 1021.3
20260901152103 76 339 3.0 9.0 0.00 0.00 0.00 70 1021.3
20260901152024 76 338 3.0 9.0 0.00 0.00 0.00 71 1021.4
20260901151903 76 339 3.0 9.0 0.00 0.00 0.00 70 1021.5
20260901151803 76 339 3.0 9.0 0.00 0.00 0.00 69 1021.5
20260901151703 77 341 3.0 7.0 0.00 0.00 0.00 69 1021.5
20260901151603 77 342 3.0 7.0 0.00 0.00 0.00 68 1021.4
20260901151503 77 345 2.0 7.0 0.00 0.00 0.00 69 1021.3
20260901151403 77 345 2.0 7.0 0.00 0.00 0.00 69 1021.4
20260901151303 77 345 2.0 7.0 0.00 0.00 0.00 70 1021.3
20260901151203 76 348 2.0 7.0 0.00 0.00 0.00 70 1021.2
20260901151124 76 348 3.0 7.0 0.00 0.00 0.00 70 1021.5
20260901151003 76 348 3.0 7.0 0.00 0.00 0.00 72 1021.4
20260901150903 76 345 2.0 7.0 0.00 0.00 0.00 71 1021.4
20260901150803 77 342 3.0 7.0 0.00 0.00 0.00 70 1021.2
20260901150703 77 337 2.0 6.0 0.00 0.00 0.00 68 1021.2
20260901150603 77 336 2.0 4.0 0.00 0.00 0.00 70 1021.4
20260901150503 77 333 2.0 6.0 0.00 0.00 0.00 69 1021.3
20260901150403 77 333 3.0 6.0 0.00 0.00 0.00 69 1021.3
20260901150303 77 332 3.0 7.0 0.00 0.00 0.00 69 1021.3
20260901150203 77 335 3.0 7.0 0.00 0.00 0.00 69 1021.4
20260901150003 77 335 3.0 7.0 0.00 0.00 0.00 69 1021.2
20260901145924 77 340 3.0 7.0 0.00 0.00 0.00 69 1021.2
20260901145824 76 342 3.0 7.0 0.00 0.00 0.00 71 1021.1
20260901145703 76 346 3.0 7.0 0.00 0.00 0.00 70 1021.4
20260901145603 76 340 3.0 7.0 0.00 0.00 0.00 71 1021.4
20260901145524 76 346 3.0 8.0 0.00 0.00 0.00 70 1021.4
20260901145403 76 346 4.0 8.0 0.00 0.00 0.00 71 1021.5
20260901145306 76 345 4.0 8.0 0.00 0.00 0.00 70 1021.2
20260901145224 76 347 4.0 8.0 0.00 0.00 0.00 72 1021.4
20260901145103 75 343 4.0 8.0 0.00 0.00 0.00 71 1021.4
20260901145003 75 343 4.0 8.0 0.00 0.00 0.00 71 1021.2
20260901144903 76 341 4.0 8.0 0.00 0.00 0.00 71 1021.4
20260901144803 76 340 4.0 8.0 0.00 0.00 0.00 71 1021.4
20260901144703 76 338 4.0 8.0 0.00 0.00 0.00 71 1021.4
20260901144603 76 342 4.0 8.0 0.00 0.00 0.00 71 1021.3
20260901144503 76 334 3.0 7.0 0.00 0.00 0.00 73 1021.3
20260901144403 76 333 4.0 7.0 0.00 0.00 0.00 71 1021.4
20260901144303 76 331 3.0 7.0 0.00 0.00 0.00 71 1021.4
20260901144203 76 328 4.0 7.0 0.00 0.00 0.00 72 1021.3
20260901144103 76 332 4.0 7.0 0.00 0.00 0.00 72 1021.3
20260901144024 76 334 4.0 7.0 0.00 0.00 0.00 71 1021.3
20260901143903 76 335 4.0 7.0 0.00 0.00 0.00 72 1021.4
20260901143803 76 335 4.0 7.0 0.00 0.00 0.00 72 1021.3
20260901143724 76 335 4.0 7.0 0.00 0.00 0.00 72 1021.3
20260901143603 76 341 3.0 7.0 0.00 0.00 0.00 71 1021.4
20260901143503 76 335 4.0 7.0 0.00 0.00 0.00 71 1021.4
20260901143403 76 338 3.0 7.0 0.00 0.00 0.00 71 1021.3
20260901143303 76 338 3.0 7.0 0.00 0.00 0.00 71 1021.3
20260901143203 77 341 3.0 7.0 0.00 0.00 0.00 70 1021.5
20260901143103 77 345 3.0 7.0 0.00 0.00 0.00 70 1021.2
20260901143003 77 339 3.0 7.0 0.00 0.00 0.00 71 1021.6
20260901142903 77 339 3.0 7.0 0.00 0.00 0.00 71 1021.6
20260901142803 77 336 3.0 7.0 0.00 0.00 0.00 70 1021.4
20260901142703 77 336 3.0 7.0 0.00 0.00 0.00 72 1021.2
20260901142603 77 339 3.0 7.0 0.00 0.00 0.00 71 1021.3
20260901142503 77 345 3.0 8.0 0.00 0.00 0.00 70 1021.3
20260901142403 77 356 3.0 8.0 0.00 0.00 0.00 71 1021.4
20260901142305 77 350 3.0 8.0 0.00 0.00 0.00 69 1021.4
20260901142203 77 343 3.0 8.0 0.00 0.00 0.00 70 1021.3
20260901142103 77 339 3.0 8.0 0.00 0.00 0.00 71 1021.4
20260901142003 76 331 3.0 8.0 0.00 0.00 0.00 70 1021.4
20260901141903 76 332 3.0 8.0 0.00 0.00 0.00 73 1021.5
20260901141803 75 336 4.0 8.0 0.00 0.00 0.00 73 1021.4
20260901141703 76 343 4.0 8.0 0.00 0.00 0.00 72 1021.4
20260901141624 76 341 4.0 8.0 0.00 0.00 0.00 70 1021.5
20260901141503 76 332 4.0 9.0 0.00 0.00 0.00 72 1021.5
20260901141403 76 331 4.0 9.0 0.00 0.00 0.00 72 1021.2
20260901141303 76 339 5.0 11.0 0.00 0.00 0.00 72 1021.4
20260901141203 75 347 5.0 11.0 0.00 0.00 0.00 74 1021.4
20260901141103 75 347 5.0 11.0 0.00 0.00 0.00 73 1021.2
20260901141024 75 347 5.0 11.0 0.00 0.00 0.00 73 1021.2
20260901140903 75 351 5.0 11.0 0.00 0.00 0.00 72 1021.2
20260901140803 75 351 5.0 11.0 0.00 0.00 0.00 72 1021.2
20260901140703 75 352 5.0 11.0 0.00 0.00 0.00 73 1021.3
20260901140603 74 348 5.0 11.0 0.00 0.00 0.00 76 1021.3
20260901140524 75 348 5.0 11.0 0.00 0.00 0.00 73 1021.3
20260901140403 75 349 5.0 11.0 0.00 0.00 0.00 73 1021.3
20260901140303 75 351 4.0 11.0 0.00 0.00 0.00 73 1021.3
20260901140203 75 354 4.0 9.0 0.00 0.00 0.00 73 1021.2
20260901140124 75 353 4.0 9.0 0.00 0.00 0.00 73 1021.2
20260901140003 75 351 4.0 9.0 0.00 0.00 0.00 73 1021.2
20260901135903 75 351 4.0 9.0 0.00 0.00 0.00 72 1021.1
20260901135824 76 346 3.0 9.0 0.00 0.00 0.00 71 1021.2
20260901135703 77 337 3.0 9.0 0.00 0.00 0.00 72 1021.3
20260901135603 77 337 3.0 9.0 0.00 0.00 0.00 72 1021.3
20260901135503 77 332 3.0 9.0 0.00 0.00 0.00 72 1021.2
20260901135403 77 332 3.0 9.0 0.00 0.00 0.00 73 1021.2
20260901135305 76 315 3.0 9.0 0.00 0.00 0.00 72 1021.3
20260901135203 76 315 3.0 9.0 0.00 0.00 0.00 72 1021.3
20260901135124 76 312 3.0 9.0 0.00 0.00 0.00 73 1021.2
20260901135024 76 319 4.0 9.0 0.00 0.00 0.00 73 1021.2
20260901134903 76 326 3.0 7.0 0.00 0.00 0.00 73 1021.3
20260901134803 76 326 3.0 7.0 0.00 0.00 0.00 73 1021.3
20260901134703 76 327 3.0 7.0 0.00 0.00 0.00 72 1021.3
20260901134624 76 335 3.0 7.0 0.00 0.00 0.00 74 1021.3
20260901134524 75 337 4.0 7.0 0.00 0.00 0.00 72 1021.2
20260901134403 75 345 3.0 7.0 0.00 0.00 0.00 73 1021.2
20260901134303 75 337 4.0 7.0 0.00 0.00 0.00 74 1021.1
20260901134203 76 338 3.0 7.0 0.00 0.00 0.00 73 1021.3
20260901134103 76 341 4.0 8.0 0.00 0.00 0.00 73 1021.4
20260901134003 76 341 4.0 8.0 0.00 0.00 0.00 73 1021.4
20260901133903 76 335 3.0 8.0 0.00 0.00 0.00 73 1021.2
20260901133803 76 338 3.0 8.0 0.00 0.00 0.00 73 1021.4
20260901133703 76 336 3.0 8.0 0.00 0.00 0.00 73 1021.5
20260901133603 76 336 3.0 8.0 0.00 0.00 0.00 73 1021.5
20260901133503 76 317 3.0 8.0 0.00 0.00 0.00 73 1021.2
20260901133403 76 312 3.0 8.0 0.00 0.00 0.00 74 1021.3
20260901133303 76 320 3.0 8.0 0.00 0.00 0.00 73 1021.3
20260901133203 76 320 3.0 8.0 0.00 0.00 0.00 73 1021.3
20260901133124 76 317 4.0 8.0 0.00 0.00 0.00 73 1021.1
20260901133003 76 316 3.0 8.0 0.00 0.00 0.00 73 1021.3
20260901132903 76 320 3.0 8.0 0.00 0.00 0.00 74 1021.3
20260901132803 76 320 3.0 8.0 0.00 0.00 0.00 74 1021.3
20260901132703 76 318 3.0 8.0 0.00 0.00 0.00 73 1021.3
20260901132603 76 333 3.0 7.0 0.00 0.00 0.00 74 1021.4
20260901132503 76 333 3.0 7.0 0.00 0.00 0.00 74 1021.4
20260901132424 76 336 3.0 7.0 0.00 0.00 0.00 73 1021.2
20260901132306 76 343 3.0 7.0 0.00 0.00 0.00 74 1021.4
20260901132203 76 332 3.0 7.0 0.00 0.00 0.00 74 1021.3
20260901132103 76 330 3.0 7.0 0.00 0.00 0.00 75 1021.5
20260901132024 76 330 3.0 7.0 0.00 0.00 0.00 75 1021.5
20260901131903 76 333 4.0 8.0 0.00 0.00 0.00 74 1021.2
20260901131824 76 336 4.0 8.0 0.00 0.00 0.00 73 1021.2
20260901131703 75 335 4.0 8.0 0.00 0.00 0.00 74 1021.2
20260901131603 75 335 4.0 8.0 0.00 0.00 0.00 74 1021.2
20260901131524 75 334 4.0 8.0 0.00 0.00 0.00 75 1021.2
20260901131403 75 338 4.0 8.0 0.00 0.00 0.00 75 1021.1
20260901131303 75 339 4.0 8.0 0.00 0.00 0.00 75 1021.3
20260901131203 75 339 4.0 8.0 0.00 0.00 0.00 75 1021.3
20260901131103 75 348 4.0 8.0 0.00 0.00 0.00 74 1021.1
20260901131003 76 350 4.0 8.0 0.00 0.00 0.00 73 1021.3
20260901130903 75 342 3.0 8.0 0.00 0.00 0.00 74 1021.3
20260901130824 75 342 3.0 8.0 0.00 0.00 0.00 74 1021.3
20260901130703 75 341 3.0 8.0 0.00 0.00 0.00 74 1021.0
20260901130603 75 338 3.0 8.0 0.00 0.00 0.00 74 1021.3
20260901130503 75 339 3.0 8.0 0.00 0.00 0.00 75 1021.1
20260901130403 75 339 3.0 8.0 0.00 0.00 0.00 75 1021.1
20260901130303 76 337 4.0 8.0 0.00 0.00 0.00 74 1021.2
20260901130203 76 340 4.0 8.0 0.00 0.00 0.00 74 1021.1
20260901130003 76 333 3.0 8.0 0.00 0.00 0.00 74 1021.1
20260901125903 75 333 3.0 8.0 0.00 0.00 0.00 74 1021.2
20260901125803 75 337 3.0 8.0 0.00 0.00 0.00 75 1021.2
20260901125724 75 340 3.0 8.0 0.00 0.00 0.00 75 1021.2
20260901125603 75 343 3.0 8.0 0.00 0.00 0.00 74 1021.2
20260901125503 75 343 3.0 8.0 0.00 0.00 0.00 75 1021.1
20260901125403 75 338 3.0 8.0 0.00 0.00 0.00 73 1021.5
20260901125324 76 336 2.0 6.0 0.00 0.00 0.00 74 1021.2
20260901125203 76 334 2.0 4.0 0.00 0.00 0.00 73 1021.1
20260901125103 76 327 3.0 6.0 0.00 0.00 0.00 74 1021.1
20260901125024 76 332 3.0 6.0 0.00 0.00 0.00 74 1021.1
20260901124903 76 336 3.0 6.0 0.00 0.00 0.00 73 1021.1
20260901124803 76 336 3.0 6.0 0.00 0.00 0.00 73 1021.1
20260901124703 76 340 3.0 6.0 0.00 0.00 0.00 75 1021.2
20260901124603 76 341 3.0 6.0 0.00 0.00 0.00 73 1021.0
20260901124524 75 341 3.0 6.0 0.00 0.00 0.00 75 1021.1
20260901124403 75 346 3.0 6.0 0.00 0.00 0.00 75 1021.3
20260901124303 75 344 3.0 6.0 0.00 0.00 0.00 75 1021.1
20260901124203 75 345 3.0 6.0 0.00 0.00 0.00 75 1021.1
20260901124103 75 348 3.0 6.0 0.00 0.00 0.00 74 1021.0
20260901124003 75 348 3.0 6.0 0.00 0.00 0.00 74 1021.0
20260901123924 75 351 3.0 6.0 0.00 0.00 0.00 76 1021.2
20260901123803 75 348 3.0 6.0 0.00 0.00 0.00 74 1021.2
20260901123703 76 349 3.0 6.0 0.00 0.00 0.00 74 1021.2
20260901123603 76 349 3.0 6.0 0.00 0.00 0.00 74 1021.2
20260901123503 76 341 3.0 6.0 0.00 0.00 0.00 74 1021.5
20260901123403 76 341 3.0 6.0 0.00 0.00 0.00 74 1021.5
20260901123303 76 334 3.0 6.0 0.00 0.00 0.00 74 1021.4
20260901123203 76 334 3.0 6.0 0.00 0.00 0.00 74 1021.4
20260901123103 77 321 2.0 4.0 0.00 0.00 0.00 73 1021.4
20260901123003 77 321 2.0 4.0 0.00 0.00 0.00 73 1021.4
20260901122903 77 313 2.0 4.0 0.00 0.00 0.00 72 1021.4
20260901122803 77 304 2.0 4.0 0.00 0.00 0.00 73 1021.4
20260901122724 77 305 2.0 4.0 0.00 0.00 0.00 73 1021.4
20260901122603 77 303 2.0 4.0 0.00 0.00 0.00 73 1021.5
20260901122524 77 310 2.0 3.0 0.00 0.00 0.00 71 1021.2
20260901122403 77 306 2.0 3.0 0.00 0.00 0.00 72 1021.4
20260901122306 77 306 2.0 3.0 0.00 0.00 0.00 73 1021.4
20260901122203 76 316 2.0 4.0 0.00 0.00 0.00 73 1021.4
20260901122103 76 316 2.0 4.0 0.00 0.00 0.00 73 1021.4
20260901122003 77 322 2.0 4.0 0.00 0.00 0.00 71 1021.3
20260901121903 77 330 2.0 4.0 0.00 0.00 0.00 72 1021.3
20260901121803 77 347 1.0 4.0 0.00 0.00 0.00 72 1021.2
20260901121703 77 346 1.0 4.0 0.00 0.00 0.00 73 1021.2
20260901121603 77 333 1.0 4.0 0.00 0.00 0.00 74 1021.4
20260901121503 76 318 2.0 4.0 0.00 0.00 0.00 73 1021.4
20260901121403 76 307 2.0 4.0 0.00 0.00 0.00 72 1021.3
20260901121303 76 301 2.0 4.0 0.00 0.00 0.00 74 1021.3
20260901121203 76 302 2.0 4.0 0.00 0.00 0.00 73 1021.6
20260901121103 76 294 2.0 4.0 0.00 0.00 0.00 73 1021.3
20260901121003 76 286 2.0 4.0 0.00 0.00 0.00 73 1021.3
20260901120903 75 295 2.0 4.0 0.00 0.00 0.00 74 1021.3
20260901120824 75 295 2.0 4.0 0.00 0.00 0.00 74 1021.3
20260901120703 75 299 2.0 4.0 0.00 0.00 0.00 72 1021.5
20260901120603 75 299 2.0 4.0 0.00 0.00 0.00 72 1021.5
20260901120503 76 315 2.0 4.0 0.00 0.00 0.00 73 1021.5
20260901120403 76 315 2.0 4.0 0.00 0.00 0.00 73 1021.5
20260901120303 75 314 2.0 4.0 0.00 0.00 0.00 74 1021.4
20260901120203 75 318 2.0 4.0 0.00 0.00 0.00 73 1021.5
20260901120003 75 320 2.0 4.0 0.00 0.00 0.00 75 1021.4
20260901115903 75 312 2.0 4.0 0.00 0.00 0.00 76 1021.3
20260901115803 75 304 2.0 4.0 0.00 0.00 0.00 76 1021.4
20260901115703 75 287 2.0 4.0 0.00 0.00 0.00 74 1021.7
20260901115624 75 287 2.0 4.0 0.00 0.00 0.00 74 1021.7
20260901115503 75 277 2.0 4.0 0.00 0.00 0.00 75 1021.6
20260901115403 75 268 2.0 4.0 0.00 0.00 0.00 76 1021.4
20260901115306 74 268 2.0 3.0 0.00 0.00 0.00 76 1021.6
20260901115203 74 268 2.0 3.0 0.00 0.00 0.00 76 1021.6
20260901115103 74 272 2.0 3.0 0.00 0.00 0.00 76 1021.5
20260901115024 74 271 2.0 3.0 0.00 0.00 0.00 75 1021.6
20260901114903 73 289 2.0 3.0 0.00 0.00 0.00 77 1021.5
20260901114803 73 271 2.0 3.0 0.00 0.00 0.00 78 1021.6
20260901114703 73 271 2.0 3.0 0.00 0.00 0.00 78 1021.6
20260901114624 73 275 2.0 3.0 0.00 0.00 0.00 77 1021.6
20260901114503 72 301 1.0 3.0 0.00 0.00 0.00 78 1021.5
20260901114403 72 307 2.0 4.0 0.00 0.00 0.00 79 1021.6
20260901114303 72 304 2.0 4.0 0.00 0.00 0.00 78 1021.4
20260901114203 72 306 2.0 4.0 0.00 0.00 0.00 78 1021.4
20260901114103 72 300 2.0 4.0 0.00 0.00 0.00 79 1021.6
20260901114003 73 298 2.0 4.0 0.00 0.00 0.00 78 1021.5
20260901113903 73 291 2.0 4.0 0.00 0.00 0.00 78 1021.7
20260901113803 73 291 2.0 4.0 0.00 0.00 0.00 79 1021.7
20260901113703 73 295 2.0 4.0 0.00 0.00 0.00 78 1021.7
20260901113603 73 301 2.0 4.0 0.00 0.00 0.00 78 1021.7
20260901113524 73 298 2.0 4.0 0.00 0.00 0.00 78 1021.5
20260901113403 73 304 2.0 3.0 0.00 0.00 0.00 79 1021.7
20260901113303 72 306 2.0 3.0 0.00 0.00 0.00 81 1021.8
20260901113203 72 305 2.0 3.0 0.00 0.00 0.00 80 1021.7
20260901113103 71 310 2.0 3.0 0.00 0.00 0.00 80 1021.8
20260901113003 71 315 2.0 3.0 0.00 0.00 0.00 81 1021.8
20260901112903 71 315 2.0 3.0 0.00 0.00 0.00 81 1021.8
20260901112803 71 319 2.0 6.0 0.00 0.00 0.00 80 1021.8
20260901112703 71 329 2.0 6.0 0.00 0.00 0.00 80 1021.7
20260901112603 71 329 2.0 6.0 0.00 0.00 0.00 80 1021.7
20260901112503 71 330 2.0 6.0 0.00 0.00 0.00 80 1021.9
20260901112403 71 335 2.0 6.0 0.00 0.00 0.00 81 1021.8
20260901112306 71 334 2.0 6.0 0.00 0.00 0.00 80 1021.8
20260901112224 71 336 2.0 6.0 0.00 0.00 0.00 80 1021.7
20260901112103 72 337 2.0 6.0 0.00 0.00 0.00 80 1021.8
20260901112003 72 337 2.0 6.0 0.00 0.00 0.00 80 1021.8
20260901111903 72 344 2.0 6.0 0.00 0.00 0.00 80 1021.8
20260901111803 72 353 1.0 4.0 0.00 0.00 0.00 80 1021.7
20260901111703 72 360 1.0 4.0 0.00 0.00 0.00 79 1021.7
20260901111603 72 360 1.0 4.0 0.00 0.00 0.00 79 1021.7
20260901111503 71 2 1.0 4.0 0.00 0.00 0.00 81 1021.9
20260901111403 71 5 1.0 4.0 0.00 0.00 0.00 80 1022.0
20260901111303 71 8 1.0 4.0 0.00 0.00 0.00 80 1021.8
20260901111203 71 8 1.0 4.0 0.00 0.00 0.00 80 1021.8
20260901111103 72 3 1.0 4.0 0.00 0.00 0.00 79 1021.9
20260901111003 72 353 1.0 4.0 0.00 0.00 0.00 79 1022.2
20260901110903 71 340 1.0 3.0 0.00 0.00 0.00 80 1022.0
20260901110803 71 340 1.0 3.0 0.00 0.00 0.00 80 1022.0
20260901110703 71 340 1.0 3.0 0.00 0.00 0.00 81 1022.1
20260901110624 71 342 1.0 3.0 0.00 0.00 0.00 81 1022.3
20260901110503 71 344 2.0 4.0 0.00 0.00 0.00 81 1022.2
20260901110403 71 344 2.0 4.0 0.00 0.00 0.00 81 1022.2
20260901110303 71 343 2.0 4.0 0.00 0.00 0.00 81 1022.5
20260901110203 71 346 2.0 4.0 0.00 0.00 0.00 80 1022.1
20260901110103 71 346 2.0 4.0 0.00 0.00 0.00 80 1022.1
20260901110003 71 356 2.0 4.0 0.00 0.00 0.00 80 1022.4
20260901105903 71 356 2.0 4.0 0.00 0.00 0.00 81 1022.3
20260901105803 71 356 2.0 4.0 0.00 0.00 0.00 81 1022.4
20260901105703 72 357 2.0 4.0 0.00 0.00 0.00 80 1022.5
20260901105603 72 355 2.0 4.0 0.00 0.00 0.00 80 1022.4
20260901105524 72 358 2.0 4.0 0.00 0.00 0.00 80 1022.5
20260901105403 72 1 2.0 6.0 0.00 0.00 0.00 79 1022.3
20260901105305 72 2 2.0 6.0 0.00 0.00 0.00 79 1022.4
20260901105203 72 2 2.0 7.0 0.00 0.00 0.00 79 1022.4
20260901105103 72 2 3.0 7.0 0.00 0.00 0.00 78 1022.5
20260901105003 72 360 3.0 7.0 0.00 0.00 0.00 78 1022.5
20260901104903 72 360 2.0 7.0 0.00 0.00 0.00 78 1022.6
20260901104803 72 1 2.0 7.0 0.00 0.00 0.00 77 1022.3
20260901104724 72 1 2.0 7.0 0.00 0.00 0.00 77 1022.3
20260901104603 72 3 2.0 7.0 0.00 0.00 0.00 77 1022.5
20260901104503 72 3 2.0 7.0 0.00 0.00 0.00 77 1022.5
20260901104403 73 1 2.0 7.0 0.00 0.00 0.00 77 1022.6
20260901104303 73 359 2.0 7.0 0.00 0.00 0.00 77 1022.5
20260901104203 74 360 2.0 7.0 0.00 0.00 0.00 76 1022.5
20260901104103 74 1 2.0 4.0 0.00 0.00 0.00 76 1022.6
20260901104003 74 360 2.0 4.0 0.00 0.00 0.00 76 1022.4
20260901103903 74 2 2.0 4.0 0.00 0.00 0.00 76 1022.4
20260901103803 74 359 2.0 4.0 0.00 0.00 0.00 77 1022.5
20260901103703 74 359 2.0 4.0 0.00 0.00 0.00 77 1022.5
20260901103603 74 360 2.0 4.0 0.00 0.00 0.00 76 1022.5
20260901103503 74 360 2.0 4.0 0.00 0.00 0.00 75 1022.5
20260901103403 75 357 2.0 4.0 0.00 0.00 0.00 75 1022.5
20260901103303 75 360 2.0 4.0 0.00 0.00 0.00 74 1022.5
20260901103203 74 2 1.0 3.0 0.00 0.00 0.00 76 1022.7
20260901103124 74 2 1.0 3.0 0.00 0.00 0.00 76 1022.7
20260901103003 73 355 2.0 3.0 0.00 0.00 0.00 78 1022.6
20260901102924 73 355 2.0 3.0 0.00 0.00 0.00 78 1022.6
20260901102824 73 354 2.0 3.0 0.00 0.00 0.00 77 1022.7
20260901102703 72 357 2.0 4.0 0.00 0.00 0.00 79 1022.7
20260901102603 72 357 2.0 4.0 0.00 0.00 0.00 79 1022.7
20260901102524 72 355 2.0 4.0 0.00 0.00 0.00 79 1022.8
20260901102403 72 354 2.0 4.0 0.00 0.00 0.00 79 1022.6
20260901102324 71 357 2.0 4.0 0.00 0.00 0.00 81 1022.7
20260901102224 71 343 2.0 4.0 0.00 0.00 0.00 82 1022.5
20260901102103 71 343 2.0 4.0 0.00 0.00 0.00 81 1022.7
20260901102003 71 343 2.0 4.0 0.00 0.00 0.00 81 1022.7
20260901101903 71 343 2.0 4.0 0.00 0.00 0.00 81 1022.6
20260901101803 72 346 3.0 4.0 0.00 0.00 0.00 81 1022.8
20260901101724 72 345 2.0 4.0 0.00 0.00 0.00 80 1022.6
20260901101603 72 346 2.0 4.0 0.00 0.00 0.00 80 1022.7
20260901101503 71 348 2.0 4.0 0.00 0.00 0.00 82 1022.5
20260901101403 71 352 2.0 4.0 0.00 0.00 0.00 81 1022.7
20260901101303 71 358 2.0 4.0 0.00 0.00 0.00 81 1022.8
20260901101203 71 358 2.0 4.0 0.00 0.00 0.00 81 1022.8
20260901101124 71 9 2.0 4.0 0.00 0.00 0.00 81 1022.7
20260901101003 72 20 2.0 4.0 0.00 0.00 0.00 80 1022.7
20260901100924 72 27 2.0 4.0 0.00 0.00 0.00 79 1022.7
20260901100803 72 33 1.0 4.0 0.00 0.00 0.00 78 1022.7
20260901100703 71 37 1.0 3.0 0.00 0.00 0.00 79 1022.7
20260901100624 71 24 1.0 2.0 0.00 0.00 0.00 81 1022.7
20260901100503 71 22 1.0 2.0 0.00 0.00 0.00 80 1022.7
20260901100403 71 22 1.0 2.0 0.00 0.00 0.00 80 1022.7
20260901100303 71 23 1.0 2.0 0.00 0.00 0.00 81 1022.7
20260901100203 71 21 1.0 2.0 0.00 0.00 0.00 81 1022.7
20260901100124 71 21 1.0 2.0 0.00 0.00 0.00 81 1022.7
20260901100003 71 13 1.0 2.0 0.00 0.00 0.00 82 1022.7
20260901095903 70 10 1.0 2.0 0.00 0.00 0.00 82 1022.6
20260901095803 70 8 1.0 3.0 0.00 0.00 0.00 82 1022.8
20260901095703 70 9 2.0 3.0 0.00 0.00 0.00 83 1022.7
20260901095603 70 7 2.0 3.0 0.00 0.00 0.00 83 1022.6
20260901095503 70 6 2.0 3.0 0.00 0.00 0.00 82 1022.8
20260901095403 70 6 1.0 3.0 0.00 0.00 0.00 82 1022.7
20260901095306 70 5 1.0 3.0 0.00 0.00 0.00 82 1022.8
20260901095203 70 4 2.0 4.0 0.00 0.00 0.00 83 1022.6
20260901095103 70 3 2.0 4.0 0.00 0.00 0.00 83 1022.8
20260901095003 70 3 1.0 4.0 0.00 0.00 0.00 83 1022.8
20260901094903 70 5 2.0 4.0 0.00 0.00 0.00 83 1022.7
20260901094803 69 360 1.0 4.0 0.00 0.00 0.00 83 1022.7
20260901094703 69 360 1.0 4.0 0.00 0.00 0.00 83 1022.8
20260901094603 69 360 1.0 4.0 0.00 0.00 0.00 83 1022.8
20260901094503 69 360 1.0 4.0 0.00 0.00 0.00 83 1022.8
20260901094403 69 358 1.0 4.0 0.00 0.00 0.00 84 1022.8
20260901094303 69 358 1.0 4.0 0.00 0.00 0.00 83 1022.6
20260901094203 69 360 1.0 4.0 0.00 0.00 0.00 83 1022.9
20260901094103 69 4 1.0 3.0 0.00 0.00 0.00 83 1022.6
20260901094003 69 7 1.0 3.0 0.00 0.00 0.00 83 1022.8
20260901093903 69 13 1.0 3.0 0.00 0.00 0.00 83 1022.8
20260901093803 70 16 1.0 3.0 0.00 0.00 0.00 82 1022.7
20260901093703 70 24 1.0 2.0 0.00 0.00 0.00 82 1022.8
20260901093603 70 28 1.0 2.0 0.00 0.00 0.00 81 1022.8
20260901093503 70 34 1.0 2.0 0.00 0.00 0.00 81 1022.7
20260901093403 70 44 1.0 2.0 0.00 0.00 0.00 83 1022.8
20260901093303 69 49 1.0 2.0 0.00 0.00 0.00 83 1022.8
20260901093203 69 51 1.0 2.0 0.00 0.00 0.00 83 1022.9
20260901093124 69 51 1.0 2.0 0.00 0.00 0.00 83 1022.9
20260901093003 69 58 1.0 3.0 0.00 0.00 0.00 84 1022.9
20260901092903 68 58 1.0 3.0 0.00 0.00 0.00 85 1022.9
20260901092803 68 62 1.0 3.0 0.00 0.00 0.00 85 1023.0
20260901092703 68 65 1.0 3.0 0.00 0.00 0.00 85 1022.9
20260901092603 68 65 1.0 3.0 0.00 0.00 0.00 85 1022.9
20260901092503 68 66 2.0 3.0 0.00 0.00 0.00 85 1023.1
20260901092403 68 69 2.0 3.0 0.00 0.00 0.00 84 1022.8
20260901092324 68 70 2.0 3.0 0.00 0.00 0.00 85 1022.9
20260901092203 67 67 2.0 3.0 0.00 0.00 0.00 85 1022.9
20260901092103 67 68 1.0 3.0 0.00 0.00 0.00 85 1022.9
20260901092003 67 65 1.0 3.0 0.00 0.00 0.00 85 1022.9
20260901091903 67 60 1.0 3.0 0.00 0.00 0.00 85 1022.8
20260901091803 67 59 1.0 3.0 0.00 0.00 0.00 85 1022.8
20260901091724 67 51 1.0 3.0 0.00 0.00 0.00 85 1022.9
20260901091603 68 41 1.0 3.0 0.00 0.00 0.00 84 1022.9
20260901091503 68 36 1.0 3.0 0.00 0.00 0.00 84 1022.7
20260901091403 67 22 1.0 3.0 0.00 0.00 0.00 86 1023.0
20260901091324 67 22 1.0 3.0 0.00 0.00 0.00 86 1022.9
20260901091203 67 20 1.0 3.0 0.00 0.00 0.00 87 1023.0
20260901091103 66 20 1.0 3.0 0.00 0.00 0.00 86 1022.8
20260901091003 66 30 1.0 3.0 0.00 0.00 0.00 86 1022.9
20260901090903 66 43 1.0 3.0 0.00 0.00 0.00 87 1022.8
20260901090803 66 43 1.0 3.0 0.00 0.00 0.00 87 1022.8
20260901062309 55 0 0.0 0.0 0.00 0.00 0.00 99 1022.1
20260901062203 55 0 0.0 0.0 0.00 0.00 0.00 99 1022.0
20260901062103 55 0 0.0 0.0 0.00 0.00 0.00 99 1022.1
20260901062003 55 0 0.0 0.0 0.00 0.00 0.00 99 1022.1
20260901061903 55 0 0.0 0.0 0.00 0.00 0.00 99 1022.0
20260901061803 55 25 0.0 1.0 0.00 0.00 0.00 99 1022.0
20260901061724 55 25 0.0 1.0 0.00 0.00 0.00 99 1022.1
20260901061624 55 25 0.0 1.0 0.00 0.00 0.00 99 1021.9
20260901061503 55 25 0.0 1.0 0.00 0.00 0.00 99 1021.7
20260901061403 55 25 0.0 1.0 0.00 0.00 0.00 99 1022.0
20260901061324 55 25 0.0 1.0 0.00 0.00 0.00 99 1022.0
20260901061203 55 25 0.0 1.0 0.00 0.00 0.00 99 1021.8
20260901061103 55 25 0.0 1.0 0.00 0.00 0.00 99 1021.7
20260901061003 55 25 0.0 1.0 0.00 0.00 0.00 99 1021.7
20260901060903 55 25 0.0 1.0 0.00 0.00 0.00 99 1021.8
20260901060803 55 25 0.0 1.0 0.00 0.00 0.00 99 1021.8
20260901060703 55 0 0.0 0.0 0.00 0.00 0.00 99 1021.7
20260901060624 55 0 0.0 0.0 0.00 0.00 0.00 99 1021.9
20260901060524 55 0 0.0 0.0 0.00 0.00 0.00 99 1021.8
20260901060403 55 22 0.0 1.0 0.00 0.00 0.00 99 1021.9
20260901060324 55 22 0.0 1.0 0.00 0.00 0.00 99 1021.9
20260901060203 55 22 0.0 1.0 0.00 0.00 0.00 99 1021.7
20260901060104 55 22 0.0 1.0 0.00 0.00 0.00 99 1021.7
20260901060003 55 22 0.0 1.0 0.00 0.00 0.00 99 1021.7
20260901055903 55 22 0.0 1.0 0.00 0.00 0.00 99 1021.9
20260901055803 55 22 0.0 1.0 0.00 0.00 0.00 99 1021.9
20260901055703 55 22 0.0 1.0 0.00 0.00 0.00 99 1021.9
20260901055603 55 22 0.0 1.0 0.00 0.00 0.00 99 1021.9
20260901055503 55 22 0.0 1.0 0.00 0.00 0.00 99 1021.8
20260901055403 54 22 0.0 1.0 0.00 0.00 0.00 99 1021.7
20260901055306 54 0 0.0 0.0 0.00 0.00 0.00 99 1021.7
20260901055203 54 0 0.0 0.0 0.00 0.00 0.00 99 1021.8
20260901055124 54 0 0.0 0.0 0.00 0.00 0.00 99 1021.8
20260901055003 54 0 0.0 0.0 0.00 0.00 0.00 99 1021.8
20260901054903 54 0 0.0 0.0 0.00 0.00 0.00 99 1021.8
20260901054803 54 0 0.0 0.0 0.00 0.00 0.00 99 1021.8
20260901054703 54 0 0.0 0.0 0.00 0.00 0.00 99 1021.6
20260901054603 54 0 0.0 0.0 0.00 0.00 0.00 99 1021.7
20260901054524 54 0 0.0 0.0 0.00 0.00 0.00 99 1021.9
20260901054403 54 0 0.0 0.0 0.00 0.00 0.00 99 1021.7
20260901054303 54 0 0.0 0.0 0.00 0.00 0.00 99 1021.5
20260901054203 54 0 0.0 0.0 0.00 0.00 0.00 99 1021.8
20260901054103 54 0 0.0 0.0 0.00 0.00 0.00 99 1021.7
20260901054003 54 0 0.0 0.0 0.00 0.00 0.00 99 1021.7
20260901053903 54 0 0.0 0.0 0.00 0.00 0.00 99 1021.7
20260901053803 54 0 0.0 0.0 0.00 0.00 0.00 99 1021.8
20260901053703 54 0 0.0 0.0 0.00 0.00 0.00 99 1021.8
20260901053603 54 0 0.0 0.0 0.00 0.00 0.00 99 1021.7
20260901053503 54 0 0.0 0.0 0.00 0.00 0.00 99 1021.7
20260901053403 54 0 0.0 0.0 0.00 0.00 0.00 99 1021.7
20260901053303 54 23 0.0 1.0 0.00 0.00 0.00 99 1021.6
20260901053203 54 23 0.0 1.0 0.00 0.00 0.00 99 1021.6
20260901053103 54 23 0.0 1.0 0.00 0.00 0.00 99 1021.5
20260901053003 54 26 0.0 1.0 0.00 0.00 0.00 99 1021.6
20260901052903 54 21 0.0 1.0 0.00 0.00 0.00 99 1021.5
20260901052803 54 24 0.0 1.0 0.00 0.00 0.00 99 1021.5
20260901052703 55 24 0.0 1.0 0.00 0.00 0.00 99 1021.6
20260901052603 55 24 0.0 1.0 0.00 0.00 0.00 99 1021.4
20260901052503 55 24 0.0 1.0 0.00 0.00 0.00 99 1021.7
20260901052403 55 24 0.0 1.0 0.00 0.00 0.00 99 1021.7
20260901052306 55 24 0.0 1.0 0.00 0.00 0.00 99 1021.7
20260901052224 55 26 0.0 1.0 0.00 0.00 0.00 99 1021.6
20260901052124 55 26 0.0 1.0 0.00 0.00 0.00 99 1021.5
20260901052004 55 25 0.0 1.0 0.00 0.00 0.00 99 1021.4
20260901051903 55 31 0.0 1.0 0.00 0.00 0.00 99 1021.5
20260901051803 55 31 0.0 1.0 0.00 0.00 0.00 99 1021.4
20260901051703 55 31 0.0 1.0 0.00 0.00 0.00 99 1021.6
20260901051603 55 32 0.0 1.0 0.00 0.00 0.00 99 1021.6
20260901051503 55 33 0.0 1.0 0.00 0.00 0.00 99 1021.7
20260901051403 55 40 0.0 2.0 0.00 0.00 0.00 99 1021.7
20260901051303 55 40 0.0 2.0 0.00 0.00 0.00 99 1021.6
20260901051224 55 40 0.0 2.0 0.00 0.00 0.00 99 1021.6
20260901051103 55 39 1.0 2.0 0.00 0.00 0.00 99 1021.7
20260901051024 55 39 1.0 2.0 0.00 0.00 0.00 99 1021.7
20260901050903 55 39 1.0 2.0 0.00 0.00 0.00 99 1021.7
20260901050803 55 39 1.0 2.0 0.00 0.00 0.00 99 1021.7
20260901050703 55 39 1.0 2.0 0.00 0.00 0.00 99 1021.8
20260901050624 55 39 1.0 2.0 0.00 0.00 0.00 99 1021.6
20260901050503 55 44 1.0 2.0 0.00 0.00 0.00 99 1021.6
20260901050424 55 44 1.0 2.0 0.00 0.00 0.00 99 1021.8
20260901050303 55 41 1.0 1.0 0.00 0.00 0.00 99 1021.8
20260901050203 55 44 1.0 2.0 0.00 0.00 0.00 99 1021.7
20260901050124 55 44 1.0 2.0 0.00 0.00 0.00 99 1021.8
20260901050003 55 44 1.0 2.0 0.00 0.00 0.00 99 1021.7
20260901045903 55 44 1.0 2.0 0.00 0.00 0.00 99 1021.7
20260901045803 55 44 1.0 2.0 0.00 0.00 0.00 99 1021.6
20260901045703 55 44 1.0 2.0 0.00 0.00 0.00 99 1021.7
20260901045603 55 45 1.0 2.0 0.00 0.00 0.00 99 1021.9
20260901045503 55 40 1.0 2.0 0.00 0.00 0.00 99 1021.8
20260901045403 55 42 1.0 2.0 0.00 0.00 0.00 99 1021.7
20260901045306 55 42 1.0 2.0 0.00 0.00 0.00 99 1021.7
20260901045224 55 41 1.0 2.0 0.00 0.00 0.00 99 1021.9
20260901045103 55 38 1.0 2.0 0.00 0.00 0.00 99 1021.7
20260901045003 55 38 1.0 2.0 0.00 0.00 0.00 99 1021.7
20260901044924 55 39 1.0 2.0 0.00 0.00 0.00 99 1021.8
20260901044803 55 37 1.0 2.0 0.00 0.00 0.00 99 1021.7
20260901044703 55 37 1.0 2.0 0.00 0.00 0.00 99 1021.9
20260901044624 55 37 1.0 2.0 0.00 0.00 0.00 99 1021.8
20260901044505 55 37 1.0 2.0 0.00 0.00 0.00 99 1021.8
20260901044403 55 36 1.0 2.0 0.00 0.00 0.00 99 1021.8
20260901044303 55 34 1.0 1.0 0.00 0.00 0.00 99 1021.7
20260901044203 55 34 1.0 1.0 0.00 0.00 0.00 99 1021.7
20260901044103 55 39 1.0 2.0 0.00 0.00 0.00 99 1021.8
20260901044003 55 41 1.0 2.0 0.00 0.00 0.00 99 1021.8
20260901043903 55 40 1.0 2.0 0.00 0.00 0.00 99 1021.9
20260901043803 55 42 1.0 2.0 0.00 0.00 0.00 99 1021.9
20260901043703 55 42 1.0 2.0 0.00 0.00 0.00 99 1021.9
20260901043624 55 43 1.0 2.0 0.00 0.00 0.00 99 1021.8
20260901043503 55 43 1.0 2.0 0.00 0.00 0.00 99 1021.7
20260901043403 55 42 1.0 2.0 0.00 0.00 0.00 99 1021.9
20260901043303 55 42 1.0 2.0 0.00 0.00 0.00 99 1021.8
20260901043203 55 42 1.0 2.0 0.00 0.00 0.00 99 1021.9
20260901043103 55 42 1.0 2.0 0.00 0.00 0.00 99 1021.9
20260901043003 55 38 1.0 2.0 0.00 0.00 0.00 99 1021.8
20260901042924 55 36 1.0 2.0 0.00 0.00 0.00 99 1021.8
20260901042803 55 38 1.0 2.0 0.00 0.00 0.00 99 1021.9
20260901042703 55 37 1.0 2.0 0.00 0.00 0.00 99 1021.9
20260901042603 55 39 1.0 2.0 0.00 0.00 0.00 99 1021.9
20260901042503 55 39 1.0 2.0 0.00 0.00 0.00 99 1021.8
20260901042403 55 40 1.0 2.0 0.00 0.00 0.00 99 1021.8
20260901042324 55 40 1.0 2.0 0.00 0.00 0.00 99 1021.8
20260901042224 55 41 1.0 2.0 0.00 0.00 0.00 99 1021.6
20260901042124 55 41 1.0 2.0 0.00 0.00 0.00 99 1021.7
20260901042003 55 41 1.0 2.0 0.00 0.00 0.00 99 1021.8
20260901041924 55 41 1.0 2.0 0.00 0.00 0.00 99 1021.8
20260901041803 55 40 1.0 2.0 0.00 0.00 0.00 99 1021.5
20260901041703 55 40 1.0 2.0 0.00 0.00 0.00 99 1021.7
20260901041603 55 36 0.0 1.0 0.00 0.00 0.00 99 1021.7
20260901041503 55 36 0.0 1.0 0.00 0.00 0.00 99 1021.8
20260901041424 55 35 0.0 1.0 0.00 0.00 0.00 99 1021.7
20260901041303 55 35 0.0 1.0 0.00 0.00 0.00 99 1021.8
20260901041224 55 35 0.0 1.0 0.00 0.00 0.00 99 1021.8
20260901041103 55 36 0.0 1.0 0.00 0.00 0.00 99 1021.7
20260901041003 55 36 0.0 1.0 0.00 0.00 0.00 99 1021.8
20260901040903 55 36 0.0 1.0 0.00 0.00 0.00 99 1021.6
20260901040803 55 36 0.0 1.0 0.00 0.00 0.00 99 1021.6
20260901040703 55 36 0.0 1.0 0.00 0.00 0.00 99 1021.7
20260901040603 55 36 0.0 1.0 0.00 0.00 0.00 99 1021.7
20260901040503 55 36 0.0 1.0 0.00 0.00 0.00 99 1021.7
20260901040403 55 36 0.0 1.0 0.00 0.00 0.00 99 1021.8
20260901040303 55 35 0.0 1.0 0.00 0.00 0.00 99 1021.9
20260901040224 55 35 0.0 1.0 0.00 0.00 0.00 99 1021.6
20260901040103 55 35 0.0 1.0 0.00 0.00 0.00 99 1022.0
20260901040024 55 35 0.0 1.0 0.00 0.00 0.00 99 1021.8
20260901035903 55 34 0.0 1.0 0.00 0.00 0.00 99 1021.8
20260901035803 55 34 0.0 1.0 0.00 0.00 0.00 99 1021.9
20260901035703 55 34 0.0 1.0 0.00 0.00 0.00 99 1021.9
20260901035603 55 34 0.0 1.0 0.00 0.00 0.00 99 1021.8
20260901035503 55 35 0.0 1.0 0.00 0.00 0.00 99 1021.8
20260901035403 55 38 0.0 2.0 0.00 0.00 0.00 99 1021.9
20260901035305 55 39 0.0 2.0 0.00 0.00 0.00 99 1021.8
20260901035203 55 38 0.0 2.0 0.00 0.00 0.00 99 1021.8
20260901035103 55 38 1.0 2.0 0.00 0.00 0.00 99 1021.8
20260901035003 55 38 1.0 2.0 0.00 0.00 0.00 99 1021.8
20260901034903 55 37 1.0 2.0 0.00 0.00 0.00 99 1021.8
20260901034803 55 37 1.0 2.0 0.00 0.00 0.00 99 1021.8
20260901034703 56 37 1.0 2.0 0.00 0.00 0.00 99 1021.8
20260901034603 56 37 1.0 2.0 0.00 0.00 0.00 99 1022.0
20260901034503 56 38 1.0 2.0 0.00 0.00 0.00 99 1021.8
20260901034403 56 37 0.0 2.0 0.00 0.00 0.00 99 1021.7
20260901034303 56 32 0.0 1.0 0.00 0.00 0.00 99 1021.7
20260901034203 56 32 0.0 1.0 0.00 0.00 0.00 99 1021.8
20260901034103 56 31 0.0 1.0 0.00 0.00 0.00 99 1021.7
20260901034003 56 31 0.0 1.0 0.00 0.00 0.00 99 1021.6
20260901033924 56 31 0.0 1.0 0.00 0.00 0.00 99 1021.8
20260901033803 56 31 0.0 1.0 0.00 0.00 0.00 99 1021.8
20260901033703 56 31 0.0 1.0 0.00 0.00 0.00 99 1021.8
20260901033603 56 31 0.0 1.0 0.00 0.00 0.00 99 1021.8
20260901033503 56 31 0.0 1.0 0.00 0.00 0.00 99 1021.8
20260901033403 56 31 0.0 1.0 0.00 0.00 0.00 99 1021.8
20260901033303 56 31 0.0 1.0 0.00 0.00 0.00 99 1021.8
20260901033203 56 0 0.0 0.0 0.00 0.00 0.00 99 1021.7
20260901033103 56 0 0.0 0.0 0.00 0.00 0.00 99 1021.6
20260901033003 56 0 0.0 0.0 0.00 0.00 0.00 99 1021.7
20260901032903 55 0 0.0 0.0 0.00 0.00 0.00 99 1021.9
20260901032803 55 0 0.0 0.0 0.00 0.00 0.00 99 1021.7
20260901032703 55 0 0.0 0.0 0.00 0.00 0.00 99 1022.0
20260901032603 55 0 0.0 0.0 0.00 0.00 0.00 99 1021.7
20260901032503 55 0 0.0 0.0 0.00 0.00 0.00 99 1021.8
20260901032403 55 0 0.0 0.0 0.00 0.00 0.00 99 1021.9
20260901032306 55 0 0.0 0.0 0.00 0.00 0.00 99 1022.0
20260901032203 56 0 0.0 0.0 0.00 0.00 0.00 99 1021.8
20260901032103 56 0 0.0 0.0 0.00 0.00 0.00 99 1021.8
20260901032003 56 0 0.0 0.0 0.00 0.00 0.00 99 1021.8
20260901031903 56 0 0.0 0.0 0.00 0.00 0.00 99 1021.7
20260901031803 56 0 0.0 0.0 0.00 0.00 0.00 99 1021.6
20260901031703 56 0 0.0 0.0 0.00 0.00 0.00 99 1021.6
20260901031603 56 0 0.0 0.0 0.00 0.00 0.00 99 1021.9
20260901031503 56 0 0.0 0.0 0.00 0.00 0.00 99 1021.9
20260901031403 56 0 0.0 0.0 0.00 0.00 0.00 99 1021.9
20260901031324 56 0 0.0 0.0 0.00 0.00 0.00 99 1021.8
20260901031203 56 0 0.0 0.0 0.00 0.00 0.00 99 1021.9
20260901031103 56 0 0.0 0.0 0.00 0.00 0.00 99 1021.9
20260901031003 56 0 0.0 0.0 0.00 0.00 0.00 99 1021.6
20260901030903 56 0 0.0 0.0 0.00 0.00 0.00 99 1021.9
20260901030803 56 34 0.0 1.0 0.00 0.00 0.00 99 1021.9
20260901030703 56 34 0.0 1.0 0.00 0.00 0.00 99 1021.7
20260901030603 56 35 0.0 1.0 0.00 0.00 0.00 99 1021.7
20260901030503 56 34 0.0 1.0 0.00 0.00 0.00 99 1021.7
20260901030403 56 39 0.0 2.0 0.00 0.00 0.00 99 1021.7
20260901030303 56 37 0.0 2.0 0.00 0.00 0.00 99 1021.8
20260901030203 56 37 0.0 2.0 0.00 0.00 0.00 99 1021.8
20260901030124 56 36 0.0 2.0 0.00 0.00 0.00 99 1021.7
20260901030003 56 36 0.0 2.0 0.00 0.00 0.00 99 1021.8
20260901025903 56 35 1.0 2.0 0.00 0.00 0.00 99 1021.9
20260901025803 56 34 1.0 2.0 0.00 0.00 0.00 99 1021.9
20260901025724 56 34 1.0 2.0 0.00 0.00 0.00 99 1021.8
20260901025603 56 34 1.0 2.0 0.00 0.00 0.00 99 1021.8
20260901025503 56 34 0.0 2.0 0.00 0.00 0.00 99 1021.8
20260901025424 56 34 0.0 2.0 0.00 0.00 0.00 99 1022.1
20260901025305 56 29 0.0 1.0 0.00 0.00 0.00 99 1021.8
20260901025224 56 30 0.0 1.0 0.00 0.00 0.00 99 1021.9
20260901025103 56 30 0.0 1.0 0.00 0.00 0.00 99 1021.8
20260901025003 56 30 0.0 1.0 0.00 0.00 0.00 99 1022.0
20260901024903 56 30 0.0 1.0 0.00 0.00 0.00 99 1021.9
20260901024803 56 0 0.0 0.0 0.00 0.00 0.00 99 1021.9
20260901024703 56 0 0.0 0.0 0.00 0.00 0.00 99 1021.8
20260901024603 56 32 0.0 1.0 0.00 0.00 0.00 99 1021.9
20260901024503 56 32 0.0 1.0 0.00 0.00 0.00 99 1021.9
20260901024403 56 74 0.0 1.0 0.00 0.00 0.00 99 1022.0
20260901024303 56 56 0.0 1.0 0.00 0.00 0.00 99 1022.0
20260901024203 56 56 0.0 1.0 0.00 0.00 0.00 99 1022.0
20260901024103 56 48 0.0 1.0 0.00 0.00 0.00 99 1022.1
20260901024024 56 43 0.0 1.0 0.00 0.00 0.00 99 1022.1
20260901023924 57 43 0.0 1.0 0.00 0.00 0.00 99 1022.1
20260901023803 57 43 0.0 1.0 0.00 0.00 0.00 99 1022.1
20260901023724 57 43 0.0 1.0 0.00 0.00 0.00 99 1022.0
20260901023624 56 43 0.0 1.0 0.00 0.00 0.00 99 1022.0
20260901023503 56 46 0.0 1.0 0.00 0.00 0.00 99 1022.0
20260901023403 56 28 0.0 1.0 0.00 0.00 0.00 99 1021.9
20260901023303 56 27 0.0 1.0 0.00 0.00 0.00 99 1022.0
20260901023203 56 27 0.0 1.0 0.00 0.00 0.00 99 1022.0
20260901023102 56 25 0.0 1.0 0.00 0.00 0.00 99 1022.0
20260901023003 56 26 0.0 1.0 0.00 0.00 0.00 99 1022.1
20260901022903 57 26 0.0 1.0 0.00 0.00 0.00 99 1021.9
20260901022803 57 26 0.0 1.0 0.00 0.00 0.00 99 1022.1
20260901022702 57 26 0.0 1.0 0.00 0.00 0.00 99 1022.1
20260901022624 57 26 0.0 1.0 0.00 0.00 0.00 99 1022.0
20260901022502 57 26 0.0 1.0 0.00 0.00 0.00 99 1022.0
20260901022424 57 26 0.0 1.0 0.00 0.00 0.00 99 1022.0
20260901022323 57 26 0.0 1.0 0.00 0.00 0.00 99 1022.0
20260901022203 57 26 0.0 1.0 0.00 0.00 0.00 99 1022.0
20260901022102 57 26 0.0 1.0 0.00 0.00 0.00 99 1021.8
20260901022024 57 11 0.0 1.0 0.00 0.00 0.00 99 1021.9
20260901021924 57 0 0.0 0.0 0.00 0.00 0.00 99 1021.9
20260901021803 57 0 0.0 0.0 0.00 0.00 0.00 99 1021.9
20260901021702 57 0 0.0 0.0 0.00 0.00 0.00 99 1022.0
20260901021623 57 0 0.0 0.0 0.00 0.00 0.00 99 1022.0
20260901021524 57 0 0.0 0.0 0.00 0.00 0.00 99 1022.0
20260901021423 57 0 0.0 0.0 0.00 0.00 0.00 99 1021.9
20260901021303 57 0 0.0 0.0 0.00 0.00 0.00 99 1022.0
20260901021203 57 0 0.0 0.0 0.00 0.00 0.00 99 1021.8
20260901021102 57 0 0.0 0.0 0.00 0.00 0.00 99 1022.0
20260901021003 57 0 0.0 0.0 0.00 0.00 0.00 99 1022.1
20260901020903 57 10 0.0 1.0 0.00 0.00 0.00 99 1022.0
20260901020823 57 10 0.0 1.0 0.00 0.00 0.00 99 1022.0
20260901020703 57 10 0.0 1.0 0.00 0.00 0.00 99 1022.1
20260901020603 57 10 0.0 1.0 0.00 0.00 0.00 99 1022.1
20260901020503 57 10 0.0 1.0 0.00 0.00 0.00 99 1022.1
20260901020402 57 10 0.0 1.0 0.00 0.00 0.00 99 1022.1
20260901020302 57 10 0.0 1.0 0.00 0.00 0.00 99 1022.2
20260901020223 57 10 0.0 1.0 0.00 0.00 0.00 99 1022.1
20260901020003 57 10 0.0 1.0 0.00 0.00 0.00 99 1022.0
20260901015903 57 10 0.0 1.0 0.00 0.00 0.00 99 1022.0
20260901015802 57 0 0.0 0.0 0.00 0.00 0.00 99 1022.1
20260901015724 57 0 0.0 0.0 0.00 0.00 0.00 99 1022.2
20260901015623 57 0 0.0 0.0 0.00 0.00 0.00 99 1022.1
20260901015502 57 0 0.0 0.0 0.00 0.00 0.00 99 1022.1
20260901015402 57 0 0.0 0.0 0.00 0.00 0.00 99 1022.3
20260901015324 57 0 0.0 0.0 0.00 0.00 0.00 99 1022.4
20260901015223 57 0 0.0 0.0 0.00 0.00 0.00 99 1022.3
20260901015124 57 0 0.0 0.0 0.00 0.00 0.00 99 1022.3
20260901015003 57 0 0.0 0.0 0.00 0.00 0.00 99 1022.2
20260901014903 57 0 0.0 0.0 0.00 0.00 0.00 99 1022.2
20260901014802 57 0 0.0 0.0 0.00 0.00 0.00 99 1022.3
20260901014702 57 0 0.0 0.0 0.00 0.00 0.00 99 1022.3
20260901014603 57 0 0.0 0.0 0.00 0.00 0.00 99 1022.4
20260901014503 57 0 0.0 0.0 0.00 0.00 0.00 99 1022.4
20260901014402 57 0 0.0 0.0 0.00 0.00 0.00 99 1022.4
20260901014303 57 0 0.0 0.0 0.00 0.00 0.00 99 1022.4
20260901014202 58 0 0.0 0.0 0.00 0.00 0.00 99 1022.4
20260901014103 58 0 0.0 0.0 0.00 0.00 0.00 99 1022.5
20260901014003 58 0 0.0 0.0 0.00 0.00 0.00 99 1022.3
20260901013903 58 0 0.0 0.0 0.00 0.00 0.00 99 1022.5
20260901013824 58 0 0.0 0.0 0.00 0.00 0.00 99 1022.5
20260901013702 58 0 0.0 0.0 0.00 0.00 0.00 99 1022.4
20260901013603 58 0 0.0 0.0 0.00 0.00 0.00 99 1022.4
20260901013503 58 0 0.0 0.0 0.00 0.00 0.00 99 1022.6
20260901013403 58 10 0.0 1.0 0.00 0.00 0.00 99 1022.2
20260901013302 58 10 0.0 1.0 0.00 0.00 0.00 99 1022.5
20260901013203 58 10 0.0 1.0 0.00 0.00 0.00 99 1022.5
20260901013102 58 10 0.0 1.0 0.00 0.00 0.00 99 1022.5
20260901013024 58 10 0.0 1.0 0.00 0.00 0.00 99 1022.4
20260901012902 58 10 0.0 1.0 0.00 0.00 0.00 99 1022.5
20260901012802 58 10 0.0 1.0 0.00 0.00 0.00 99 1022.5
20260901012702 58 10 0.0 1.0 0.00 0.00 0.00 99 1022.4
20260901012603 58 10 0.0 1.0 0.00 0.00 0.00 99 1022.5
20260901012503 58 10 0.0 1.0 0.00 0.00 0.00 99 1022.5
20260901012403 58 10 0.0 1.0 0.00 0.00 0.00 99 1022.5
20260901012306 58 10 0.0 1.0 0.00 0.00 0.00 99 1022.5
20260901012202 58 10 0.0 1.0 0.00 0.00 0.00 99 1022.5
20260901012102 58 10 0.0 1.0 0.00 0.00 0.00 99 1022.4
20260901012003 58 10 0.0 1.0 0.00 0.00 0.00 99 1022.5
20260901011903 58 10 0.0 1.0 0.00 0.00 0.00 99 1022.4
20260901011803 58 10 0.0 1.0 0.00 0.00 0.00 98 1022.3
20260901011723 58 10 0.0 1.0 0.00 0.00 0.00 98 1022.5
20260901011603 58 10 0.0 1.0 0.00 0.00 0.00 98 1022.4
20260901011503 58 10 0.0 1.0 0.00 0.00 0.00 98 1022.4
20260901011423 58 10 0.0 1.0 0.00 0.00 0.00 98 1022.3
20260901011324 58 10 0.0 1.0 0.00 0.00 0.00 98 1022.5
20260901011202 58 10 0.0 1.0 0.00 0.00 0.00 99 1022.4
20260901011103 58 0 0.0 0.0 0.00 0.00 0.00 98 1022.4
20260901011002 58 0 0.0 0.0 0.00 0.00 0.00 98 1022.5
20260901010903 58 0 0.0 0.0 0.00 0.00 0.00 98 1022.6
20260901010803 58 0 0.0 0.0 0.00 0.00 0.00 98 1022.4
20260901010702 58 0 0.0 0.0 0.00 0.00 0.00 98 1022.4
20260901010603 58 0 0.0 0.0 0.00 0.00 0.00 98 1022.7
20260901010524 58 0 0.0 0.0 0.00 0.00 0.00 98 1022.7
20260901010403 58 0 0.0 0.0 0.00 0.00 0.00 98 1022.6
20260901010303 58 0 0.0 0.0 0.00 0.00 0.00 98 1022.6
20260901010202 58 0 0.0 0.0 0.00 0.00 0.00 98 1022.7
20260901010003 58 0 0.0 0.0 0.00 0.00 0.00 98 1022.5
20260901005903 58 0 0.0 0.0 0.00 0.00 0.00 98 1022.6
20260901005803 58 0 0.0 0.0 0.00 0.00 0.00 98 1022.7
20260901005703 58 0 0.0 0.0 0.00 0.00 0.00 98 1022.5
20260901005624 58 0 0.0 0.0 0.00 0.00 0.00 98 1022.6
20260901005503 58 0 0.0 0.0 0.00 0.00 0.00 98 1022.6
20260901005403 58 0 0.0 0.0 0.00 0.00 0.00 98 1022.6
20260901005306 58 0 0.0 0.0 0.00 0.00 0.00 98 1022.7
20260901005202 58 0 0.0 0.0 0.00 0.00 0.00 98 1022.5
20260901005103 58 0 0.0 0.0 0.00 0.00 0.00 98 1022.7
20260901005024 58 0 0.0 0.0 0.00 0.00 0.00 98 1022.7
20260901004903 58 0 0.0 0.0 0.00 0.00 0.00 98 1022.6
20260901004824 58 0 0.0 0.0 0.00 0.00 0.00 98 1022.7
20260901004702 58 0 0.0 0.0 0.00 0.00 0.00 98 1022.8
20260901004624 58 10 0.0 1.0 0.00 0.00 0.00 98 1022.7
20260901004502 58 10 0.0 1.0 0.00 0.00 0.00 98 1022.7
20260901004403 58 10 0.0 1.0 0.00 0.00 0.00 98 1022.6
20260901004303 58 10 0.0 1.0 0.00 0.00 0.00 98 1022.7
20260901004224 58 10 0.0 1.0 0.00 0.00 0.00 98 1022.8
20260901004102 58 10 0.0 1.0 0.00 0.00 0.00 98 1022.6
20260901004003 58 10 0.0 1.0 0.00 0.00 0.00 98 1022.7
20260901003906 58 10 0.0 1.0 0.00 0.00 0.00 98 1022.7
20260901003803 58 10 0.0 1.0 0.00 0.00 0.00 98 1022.6
20260901003703 58 10 0.0 1.0 0.00 0.00 0.00 98 1022.5
20260901003603 58 10 0.0 1.0 0.00 0.00 0.00 98 1022.6
20260901003524 58 10 0.0 1.0 0.00 0.00 0.00 98 1022.5
20260901003402 58 10 0.0 1.0 0.00 0.00 0.00 98 1022.7
20260901003303 58 10 0.0 1.0 0.00 0.00 0.00 98 1022.6
20260901003203 58 0 0.0 0.0 0.00 0.00 0.00 98 1022.6
20260901003103 58 0 0.0 0.0 0.00 0.00 0.00 98 1022.7
20260901003003 58 0 0.0 0.0 0.00 0.00 0.00 98 1022.7
20260901002902 58 0 0.0 0.0 0.00 0.00 0.00 98 1022.8
20260901002803 58 0 0.0 0.0 0.00 0.00 0.00 98 1022.5
20260901002703 58 0 0.0 0.0 0.00 0.00 0.00 97 1022.8
20260901002603 58 0 0.0 0.0 0.00 0.00 0.00 97 1022.7
20260901002503 58 0 0.0 0.0 0.00 0.00 0.00 97 1022.6
20260901002403 58 0 0.0 0.0 0.00 0.00 0.00 97 1022.7
20260901002305 58 0 0.0 0.0 0.00 0.00 0.00 97 1022.7
20260901002203 58 0 0.0 0.0 0.00 0.00 0.00 97 1022.7
20260901002124 58 0 0.0 0.0 0.00 0.00 0.00 97 1022.9
20260901002002 58 0 0.0 0.0 0.00 0.00 0.00 97 1022.9
20260901001924 59 0 0.0 0.0 0.00 0.00 0.00 97 1022.9
20260901001802 59 0 0.0 0.0 0.00 0.00 0.00 97 1022.9
20260901001703 59 0 0.0 0.0 0.00 0.00 0.00 97 1023.0
20260901001603 59 0 0.0 0.0 0.00 0.00 0.00 97 1023.2
20260901001502 59 0 0.0 0.0 0.00 0.00 0.00 97 1023.2
20260901001424 59 0 0.0 0.0 0.00 0.00 0.00 97 1023.1
20260901001324 59 0 0.0 0.0 0.00 0.00 0.00 97 1023.0
20260901001203 59 0 0.0 0.0 0.00 0.00 0.00 97 1023.0
20260901001103 59 0 0.0 0.0 0.00 0.00 0.00 97 1023.0
20260901001003 59 0 0.0 0.0 0.00 0.00 0.00 97 1023.0
20260901000903 59 0 0.0 0.0 0.00 0.00 0.00 97 1023.2
20260901000803 59 0 0.0 0.0 0.00 0.00 0.00 97 1022.9
20260901000703 59 0 0.0 0.0 0.00 0.00 0.00 97 1022.9
20260901000603 59 9 0.0 1.0 0.00 0.00 0.00 97 1023.1
20260901000503 59 9 0.0 1.0 0.00 0.00 0.00 97 1022.8
20260901000403 59 9 0.0 1.0 0.00 0.00 0.00 97 1023.2
20260901000303 59 9 0.0 1.0 0.00 0.00 0.00 97 1022.8
20260901000203 59 9 0.0 1.0 0.00 0.00 0.00 97 1023.1
20260901000124 59 9 0.0 1.0 0.00 0.00 0.00 97 1023.0
20260901000003 59 9 0.0 1.0 0.00 0.00 0.00 97 1023.0
20260831235903 59 9 0.0 1.0 0.00 0.00 0.00 97 1023.1
20260831235803 59 9 0.0 1.0 0.00 0.00 0.00 97 1023.0
20260831235724 59 9 0.0 1.0 0.00 0.00 0.00 97 1023.0
20260831235603 59 0 0.0 0.0 0.00 0.00 0.00 97 1023.0
20260831235503 59 0 0.0 0.0 0.00 0.00 0.00 97 1022.9
20260831235402 59 0 0.0 0.0 0.00 0.00 0.00 97 1022.9
20260831235306 59 0 0.0 0.0 0.00 0.00 0.00 97 1023.0
20260831235203 59 0 0.0 0.0 0.00 0.00 0.00 97 1022.8
20260831235102 59 0 0.0 0.0 0.00 0.00 0.00 97 1022.8
20260831235003 59 8 0.0 1.0 0.00 0.00 0.00 97 1022.8
20260831234903 59 8 0.0 1.0 0.00 0.00 0.00 97 1022.9
20260831234802 59 8 0.0 1.0 0.00 0.00 0.00 97 1023.1
20260831234703 59 8 0.0 1.0 0.00 0.00 0.00 97 1022.9
20260831234603 59 8 0.0 1.0 0.00 0.00 0.00 97 1023.1
20260831234503 59 8 0.0 1.0 0.00 0.00 0.00 97 1023.0
20260831234403 59 8 0.0 1.0 0.00 0.00 0.00 97 1023.1
20260831234303 59 8 0.0 1.0 0.00 0.00 0.00 97 1023.0
20260831234224 59 8 0.0 1.0 0.00 0.00 0.00 97 1023.1
20260831234103 59 8 0.0 1.0 0.00 0.00 0.00 97 1023.1
20260831234003 59 9 0.0 1.0 0.00 0.00 0.00 96 1023.0
20260831233924 59 9 0.0 1.0 0.00 0.00 0.00 96 1023.0
20260831233803 59 9 0.0 1.0 0.00 0.00 0.00 96 1022.9
20260831233724 59 9 0.0 1.0 0.00 0.00 0.00 96 1023.0
20260831233602 59 0 0.0 0.0 0.00 0.00 0.00 96 1023.0
20260831233503 59 0 0.0 0.0 0.00 0.00 0.00 96 1023.0
20260831233403 59 0 0.0 0.0 0.00 0.00 0.00 96 1023.1
20260831233303 59 0 0.0 0.0 0.00 0.00 0.00 96 1023.0
20260831233203 59 0 0.0 0.0 0.00 0.00 0.00 96 1023.0
20260831233103 59 34 0.0 1.0 0.00 0.00 0.00 96 1023.0
20260831233003 59 36 0.0 1.0 0.00 0.00 0.00 96 1023.0
20260831232903 59 36 0.0 1.0 0.00 0.00 0.00 96 1022.9
20260831232803 59 36 0.0 1.0 0.00 0.00 0.00 96 1022.9
20260831232703 59 36 0.0 1.0 0.00 0.00 0.00 96 1022.9
20260831232603 59 36 0.0 1.0 0.00 0.00 0.00 96 1022.9
20260831232503 59 36 0.0 1.0 0.00 0.00 0.00 96 1022.8
20260831232424 59 36 0.0 1.0 0.00 0.00 0.00 96 1023.1
20260831232305 59 36 0.0 1.0 0.00 0.00 0.00 96 1023.1
20260831232224 60 22 0.0 1.0 0.00 0.00 0.00 96 1023.0
20260831232124 60 8 0.0 1.0 0.00 0.00 0.00 96 1023.1
20260831232003 60 354 0.0 1.0 0.00 0.00 0.00 96 1023.1
20260831231924 60 354 0.0 1.0 0.00 0.00 0.00 96 1023.1
20260831231803 60 354 0.0 1.0 0.00 0.00 0.00 96 1023.1
20260831231703 60 354 0.0 1.0 0.00 0.00 0.00 96 1023.1
20260831231603 60 354 0.0 1.0 0.00 0.00 0.00 96 1023.2
20260831231503 60 354 0.0 1.0 0.00 0.00 0.00 96 1023.2
20260831231403 60 354 0.0 1.0 0.00 0.00 0.00 96 1023.3
20260831231304 60 354 0.0 1.0 0.00 0.00 0.00 95 1023.1
20260831231203 60 354 0.0 1.0 0.00 0.00 0.00 95 1023.0
20260831231124 60 0 0.0 0.0 0.00 0.00 0.00 95 1023.0
20260831231003 60 0 0.0 0.0 0.00 0.00 0.00 95 1023.1
20260831230903 60 0 0.0 0.0 0.00 0.00 0.00 95 1023.0
20260831230803 60 0 0.0 0.0 0.00 0.00 0.00 95 1023.2
20260831230703 60 0 0.0 0.0 0.00 0.00 0.00 95 1023.2
20260831230603 60 0 0.0 0.0 0.00 0.00 0.00 95 1023.1
20260831230503 60 0 0.0 0.0 0.00 0.00 0.00 95 1023.1
20260831230403 60 0 0.0 0.0 0.00 0.00 0.00 95 1023.0
20260831230303 60 0 0.0 0.0 0.00 0.00 0.00 95 1023.1
20260831230203 60 353 0.0 1.0 0.00 0.00 0.00 95 1023.1
20260831230024 60 353 0.0 1.0 0.00 0.00 0.00 95 1023.1
20260831225903 60 353 0.0 1.0 0.00 0.00 0.00 95 1023.1
20260831225803 61 353 0.0 1.0 0.00 0.00 0.00 95 1023.1
20260831225703 61 353 0.0 1.0 0.00 0.00 0.00 95 1023.2
20260831225603 61 353 0.0 1.0 0.00 0.00 0.00 95 1023.1
20260831225503 61 353 0.0 1.0 0.00 0.00 0.00 95 1023.1
20260831225403 61 353 0.0 1.0 0.00 0.00 0.00 95 1023.1
20260831225306 61 353 0.0 1.0 0.00 0.00 0.00 95 1023.2
20260831225203 61 353 0.0 1.0 0.00 0.00 0.00 95 1023.2
20260831225124 61 353 0.0 1.0 0.00 0.00 0.00 95 1023.2
20260831225024 61 353 0.0 1.0 0.00 0.00 0.00 95 1022.9
20260831224924 61 353 0.0 1.0 0.00 0.00 0.00 95 1023.2
20260831224803 61 353 0.0 1.0 0.00 0.00 0.00 95 1023.2
20260831224724 61 353 0.0 1.0 0.00 0.00 0.00 95 1023.2
20260831224603 61 353 1.0 1.0 0.00 0.00 0.00 95 1023.1
20260831224503 61 353 1.0 1.0 0.00 0.00 0.00 95 1023.1
20260831224403 61 353 1.0 1.0 0.00 0.00 0.00 95 1023.1
20260831224303 61 353 1.0 1.0 0.00 0.00 0.00 95 1023.2
20260831224203 61 353 1.0 1.0 0.00 0.00 0.00 95 1023.1
20260831224103 61 353 1.0 1.0 0.00 0.00 0.00 95 1023.1
20260831224003 61 353 1.0 1.0 0.00 0.00 0.00 95 1023.3
20260831223903 61 353 1.0 1.0 0.00 0.00 0.00 95 1023.3
20260831223803 61 353 1.0 1.0 0.00 0.00 0.00 95 1023.1
20260831223703 61 353 1.0 1.0 0.00 0.00 0.00 94 1023.2
20260831223603 61 353 1.0 1.0 0.00 0.00 0.00 94 1023.1
20260831223503 61 353 1.0 1.0 0.00 0.00 0.00 94 1023.1
20260831223424 61 353 1.0 1.0 0.00 0.00 0.00 94 1023.0
20260831223303 61 353 1.0 1.0 0.00 0.00 0.00 94 1023.2
20260831223203 61 353 1.0 1.0 0.00 0.00 0.00 94 1023.3
20260831223103 61 353 1.0 1.0 0.00 0.00 0.00 94 1023.3
20260831223003 61 353 1.0 1.0 0.00 0.00 0.00 94 1023.1
20260831222903 61 353 1.0 1.0 0.00 0.00 0.00 94 1023.2
20260831222803 61 353 1.0 1.0 0.00 0.00 0.00 94 1023.1
20260831222703 61 353 1.0 1.0 0.00 0.00 0.00 94 1023.1
20260831222603 61 353 1.0 1.0 0.00 0.00 0.00 94 1023.3
20260831222503 61 353 0.0 1.0 0.00 0.00 0.00 94 1023.1
20260831222424 62 353 1.0 1.0 0.00 0.00 0.00 94 1023.2
20260831222306 62 353 1.0 1.0 0.00 0.00 0.00 94 1023.2
20260831222203 62 353 1.0 1.0 0.00 0.00 0.00 94 1023.2
20260831222103 62 353 0.0 1.0 0.00 0.00 0.00 94 1023.5
20260831222003 62 353 0.0 1.0 0.00 0.00 0.00 94 1023.2
20260831221903 62 353 1.0 1.0 0.00 0.00 0.00 94 1023.2
20260831221803 62 353 0.0 1.0 0.00 0.00 0.00 94 1023.3
20260831221703 62 353 0.0 1.0 0.00 0.00 0.00 94 1023.1
20260831221603 62 353 0.0 1.0 0.00 0.00 0.00 94 1023.3
20260831221503 62 353 0.0 1.0 0.00 0.00 0.00 93 1023.3
20260831221424 62 353 0.0 1.0 0.00 0.00 0.00 93 1023.2
20260831221303 62 353 0.0 1.0 0.00 0.00 0.00 93 1023.2
20260831221203 62 353 0.0 1.0 0.00 0.00 0.00 93 1023.3
20260831221103 62 353 0.0 1.0 0.00 0.00 0.00 93 1023.5
20260831221003 62 353 0.0 1.0 0.00 0.00 0.00 93 1023.6
20260831220924 62 353 0.0 1.0 0.00 0.00 0.00 93 1023.6
20260831220803 62 353 0.0 1.0 0.00 0.00 0.00 93 1023.5
20260831220703 62 353 0.0 1.0 0.00 0.00 0.00 93 1023.3
20260831220603 62 353 0.0 1.0 0.00 0.00 0.00 93 1023.3
20260831220503 62 353 0.0 1.0 0.00 0.00 0.00 93 1023.5
20260831220403 62 353 0.0 1.0 0.00 0.00 0.00 93 1023.5
20260831220303 62 353 0.0 1.0 0.00 0.00 0.00 93 1023.7
20260831220203 62 353 0.0 1.0 0.00 0.00 0.00 93 1023.5
20260831220003 62 353 0.0 1.0 0.00 0.00 0.00 93 1023.5
20260831215903 62 353 0.0 1.0 0.00 0.00 0.00 93 1023.5
20260831215824 62 353 0.0 1.0 0.00 0.00 0.00 93 1023.7
20260831215703 62 353 0.0 1.0 0.00 0.00 0.00 93 1023.6
20260831215603 62 353 0.0 1.0 0.00 0.00 0.00 93 1023.6
20260831215503 62 353 0.0 1.0 0.00 0.00 0.00 93 1023.6
20260831215403 62 353 0.0 1.0 0.00 0.00 0.00 94 1023.7
20260831215324 62 353 0.0 1.0 0.00 0.00 0.00 94 1023.6
20260831215203 62 353 0.0 1.0 0.00 0.00 0.00 94 1023.7
20260831215103 62 353 0.0 1.0 0.00 0.00 0.00 94 1023.6
20260831215003 62 353 0.0 1.0 0.00 0.00 0.00 94 1023.6
20260831214924 62 353 0.0 1.0 0.00 0.00 0.00 94 1023.3
20260831214803 62 0 0.0 0.0 0.00 0.00 0.00 93 1023.7
20260831214703 62 0 0.0 0.0 0.00 0.00 0.00 93 1023.7
20260831214603 62 0 0.0 0.0 0.00 0.00 0.00 93 1023.5
20260831214503 62 353 0.0 1.0 0.00 0.00 0.00 93 1023.7
20260831214403 62 353 0.0 1.0 0.00 0.00 0.00 93 1023.6
20260831214303 62 353 0.0 1.0 0.00 0.00 0.00 93 1023.7
20260831214203 62 353 0.0 1.0 0.00 0.00 0.00 93 1023.6
20260831214103 62 353 0.0 1.0 0.00 0.00 0.00 93 1023.6
20260831214003 62 353 0.0 1.0 0.00 0.00 0.00 93 1023.6
20260831213903 62 353 0.0 1.0 0.00 0.00 0.00 93 1023.6
20260831213826 62 353 0.0 1.0 0.00 0.00 0.00 93 1023.6
20260831213724 62 353 0.0 1.0 0.00 0.00 0.00 93 1023.7
20260831213603 62 353 0.0 1.0 0.00 0.00 0.00 93 1023.6
20260831213524 62 353 0.0 1.0 0.00 0.00 0.00 93 1023.8
20260831213403 62 353 0.0 1.0 0.00 0.00 0.00 93 1023.7
20260831213303 62 353 0.0 1.0 0.00 0.00 0.00 93 1023.6
20260831213224 62 353 0.0 1.0 0.00 0.00 0.00 93 1023.8
20260831213103 63 353 0.0 1.0 0.00 0.00 0.00 93 1023.9
20260831213024 63 353 0.0 1.0 0.00 0.00 0.00 93 1023.8
20260831212903 63 353 0.0 1.0 0.00 0.00 0.00 93 1023.7
20260831212803 63 353 0.0 1.0 0.00 0.00 0.00 93 1023.9
20260831212703 63 353 0.0 1.0 0.00 0.00 0.00 93 1023.8
20260831212624 63 353 0.0 1.0 0.00 0.00 0.00 93 1023.8
20260831212524 63 353 0.0 1.0 0.00 0.00 0.00 93 1023.7
20260831212403 63 353 0.0 1.0 0.00 0.00 0.00 93 1023.8
20260831212306 63 353 1.0 1.0 0.00 0.00 0.00 93 1023.9
20260831212203 63 353 1.0 1.0 0.00 0.00 0.00 93 1023.8
20260831212103 63 353 1.0 1.0 0.00 0.00 0.00 93 1023.8
20260831212003 63 353 1.0 1.0 0.00 0.00 0.00 92 1023.8
20260831211903 63 353 0.0 1.0 0.00 0.00 0.00 92 1023.8
20260831211803 63 353 0.0 1.0 0.00 0.00 0.00 92 1023.7
20260831211703 63 353 0.0 1.0 0.00 0.00 0.00 92 1023.7
20260831211603 63 353 0.0 1.0 0.00 0.00 0.00 92 1023.5
20260831211503 63 353 0.0 1.0 0.00 0.00 0.00 92 1023.7
20260831211403 63 353 0.0 1.0 0.00 0.00 0.00 92 1023.7
20260831211303 63 353 0.0 1.0 0.00 0.00 0.00 92 1023.6
20260831211203 63 353 0.0 1.0 0.00 0.00 0.00 92 1023.8
20260831211103 63 353 0.0 1.0 0.00 0.00 0.00 92 1023.7
20260831211003 63 354 0.0 1.0 0.00 0.00 0.00 92 1023.7
20260831210903 63 354 0.0 1.0 0.00 0.00 0.00 92 1023.6
20260831210803 63 355 0.0 1.0 0.00 0.00 0.00 92 1023.6
20260831210703 63 355 0.0 1.0 0.00 0.00 0.00 92 1023.6
20260831210603 63 356 0.0 1.0 0.00 0.00 0.00 92 1023.7
20260831210503 63 356 0.0 1.0 0.00 0.00 0.00 92 1023.6
20260831210403 63 356 0.0 1.0 0.00 0.00 0.00 92 1023.9
20260831210303 63 356 0.0 1.0 0.00 0.00 0.00 92 1023.9
20260831210224 63 357 0.0 1.0 0.00 0.00 0.00 92 1023.6
20260831210103 63 357 0.0 1.0 0.00 0.00 0.00 92 1023.7
20260831210003 63 357 0.0 1.0 0.00 0.00 0.00 92 1023.7
20260831205903 63 357 0.0 1.0 0.00 0.00 0.00 92 1023.7
20260831205803 63 357 0.0 1.0 0.00 0.00 0.00 91 1023.8
20260831205703 63 357 0.0 1.0 0.00 0.00 0.00 91 1023.9
20260831205603 63 357 0.0 1.0 0.00 0.00 0.00 91 1023.7
20260831205503 63 357 0.0 1.0 0.00 0.00 0.00 91 1023.7
20260831205403 63 357 0.0 1.0 0.00 0.00 0.00 91 1023.7
20260831205324 63 358 0.0 1.0 0.00 0.00 0.00 91 1023.6
20260831205203 63 358 0.0 1.0 0.00 0.00 0.00 91 1023.7
20260831205103 63 358 0.0 1.0 0.00 0.00 0.00 91 1023.7
20260831205003 63 359 0.0 1.0 0.00 0.00 0.00 91 1023.9
20260831204903 63 359 0.0 1.0 0.00 0.00 0.00 91 1023.8
20260831204824 63 359 0.0 1.0 0.00 0.00 0.00 91 1023.9
20260831204703 63 360 0.0 1.0 0.00 0.00 0.00 90 1023.9
20260831204624 64 360 0.0 1.0 0.00 0.00 0.00 90 1023.8
20260831204503 64 360 0.0 1.0 0.00 0.00 0.00 90 1023.8
20260831204403 64 360 0.0 1.0 0.00 0.00 0.00 90 1023.7
20260831204303 64 1 0.0 1.0 0.00 0.00 0.00 90 1023.7
20260831204203 64 1 0.0 1.0 0.00 0.00 0.00 90 1023.7
20260831204103 64 1 0.0 2.0 0.00 0.00 0.00 90 1023.7
20260831204003 64 1 0.0 2.0 0.00 0.00 0.00 89 1023.9
20260831203903 64 1 0.0 2.0 0.00 0.00 0.00 89 1023.7
20260831203803 64 1 0.0 2.0 0.00 0.00 0.00 89 1023.8
20260831203703 64 1 0.0 2.0 0.00 0.00 0.00 89 1023.6
20260831203603 64 1 0.0 2.0 0.00 0.00 0.00 89 1023.6
20260831203503 64 1 0.0 2.0 0.00 0.00 0.00 88 1023.5
20260831203424 64 1 0.0 2.0 0.00 0.00 0.00 88 1023.5
20260831203303 64 1 1.0 2.0 0.00 0.00 0.00 88 1023.5
20260831203203 64 1 1.0 2.0 0.00 0.00 0.00 88 1023.5
20260831203103 64 1 1.0 2.0 0.00 0.00 0.00 88 1023.6
20260831203003 64 1 1.0 1.0 0.00 0.00 0.00 88 1023.5
20260831202903 64 1 1.0 1.0 0.00 0.00 0.00 88 1023.6
20260831202803 64 2 1.0 1.0 0.00 0.00 0.00 87 1023.7
20260831202724 64 2 1.0 1.0 0.00 0.00 0.00 87 1023.7
20260831202624 64 3 1.0 1.0 0.00 0.00 0.00 87 1023.6
20260831202503 65 4 1.0 1.0 0.00 0.00 0.00 87 1023.8
20260831202403 65 5 1.0 1.0 0.00 0.00 0.00 87 1023.5
20260831202306 65 6 1.0 1.0 0.00 0.00 0.00 87 1023.6
20260831202203 65 6 1.0 1.0 0.00 0.00 0.00 87 1023.5
20260831202103 65 6 1.0 1.0 0.00 0.00 0.00 87 1023.5
20260831202003 65 7 1.0 1.0 0.00 0.00 0.00 86 1023.6
20260831201903 65 8 1.0 1.0 0.00 0.00 0.00 86 1023.5
20260831201803 65 8 1.0 1.0 0.00 0.00 0.00 86 1023.5
20260831201703 65 5 1.0 2.0 0.00 0.00 0.00 86 1023.3
20260831201603 65 5 1.0 2.0 0.00 0.00 0.00 86 1023.3
20260831201524 65 3 1.0 2.0 0.00 0.00 0.00 86 1023.3
20260831201424 65 3 1.0 2.0 0.00 0.00 0.00 86 1023.3
20260831201303 65 2 1.0 2.0 0.00 0.00 0.00 86 1023.5
20260831201203 65 1 1.0 2.0 0.00 0.00 0.00 86 1023.3
20260831201103 65 360 1.0 2.0 0.00 0.00 0.00 85 1023.3
20260831201003 65 360 1.0 2.0 0.00 0.00 0.00 85 1023.3
20260831200903 65 360 1.0 2.0 0.00 0.00 0.00 85 1023.3
20260831200803 65 359 1.0 2.0 0.00 0.00 0.00 85 1023.3
20260831200703 65 358 1.0 2.0 0.00 0.00 0.00 85 1023.3
20260831200603 65 359 1.0 2.0 0.00 0.00 0.00 85 1023.3
20260831200503 65 360 1.0 2.0 0.00 0.00 0.00 85 1023.5
20260831200403 65 360 1.0 2.0 0.00 0.00 0.00 85 1023.2
20260831200303 65 356 1.0 3.0 0.00 0.00 0.00 85 1023.2
20260831200203 65 358 1.0 3.0 0.00 0.00 0.00 85 1023.5
20260831200003 65 360 1.0 3.0 0.00 0.00 0.00 85 1023.2
20260831195903 65 360 1.0 3.0 0.00 0.00 0.00 85 1023.2
20260831195803 66 2 1.0 3.0 0.00 0.00 0.00 84 1023.6
20260831195703 66 3 1.0 3.0 0.00 0.00 0.00 84 1023.3
20260831195603 66 2 1.0 3.0 0.00 0.00 0.00 84 1023.2
20260831195524 66 1 1.0 3.0 0.00 0.00 0.00 84 1023.5
20260831195403 66 1 1.0 3.0 0.00 0.00 0.00 84 1023.3
20260831195306 66 3 1.0 3.0 0.00 0.00 0.00 84 1023.3
20260831195224 66 3 1.0 4.0 0.00 0.00 0.00 84 1023.2
20260831195103 66 5 2.0 6.0 0.00 0.00 0.00 83 1023.2
20260831195003 66 6 2.0 6.0 0.00 0.00 0.00 83 1023.2
20260831194924 66 6 2.0 6.0 0.00 0.00 0.00 83 1023.2
20260831194803 66 6 2.0 6.0 0.00 0.00 0.00 83 1023.1
20260831194724 66 6 2.0 6.0 0.00 0.00 0.00 83 1023.1
20260831194603 66 4 2.0 6.0 0.00 0.00 0.00 83 1023.3
20260831194503 66 5 2.0 6.0 0.00 0.00 0.00 83 1023.3
20260831194403 66 5 2.0 6.0 0.00 0.00 0.00 83 1023.1
20260831194324 66 6 2.0 6.0 0.00 0.00 0.00 83 1023.3
20260831194203 66 3 2.0 6.0 0.00 0.00 0.00 83 1023.1
20260831194103 66 3 2.0 6.0 0.00 0.00 0.00 83 1023.2
20260831194003 66 359 2.0 4.0 0.00 0.00 0.00 83 1023.2
20260831193903 66 349 2.0 4.0 0.00 0.00 0.00 83 1023.3
20260831193803 66 348 2.0 4.0 0.00 0.00 0.00 83 1023.2
20260831193703 66 347 2.0 4.0 0.00 0.00 0.00 83 1023.2
20260831193603 66 347 2.0 4.0 0.00 0.00 0.00 83 1023.1
20260831193524 66 347 3.0 4.0 0.00 0.00 0.00 83 1023.2
20260831193403 66 347 2.0 4.0 0.00 0.00 0.00 83 1023.5
20260831193303 66 348 3.0 4.0 0.00 0.00 0.00 83 1023.2
20260831193203 66 351 2.0 4.0 0.00 0.00 0.00 83 1023.3
20260831193103 66 350 3.0 4.0 0.00 0.00 0.00 83 1023.2